GEFSMW_con_probscp_000.txt.gz
Probability
4 2 3 5 6 9 12 16 22 34 60 86 96 95 92 87 85 83 79 69 52 45 61 80 75 51 45 59 53 25 6 1 1 2 1 0 0 0 0 0 0 0 0
3 2 4 6 6 6 7 9 13 25 51 79 93 91 83 75 72 73 72 62 44 38 53 74 81 66 49 46 38 18 5 1 1 1 1 0 0 0 0 0 0 0 0
2 1 2 3 3 4 4 5 7 14 31 54 68 65 54 45 45 52 56 49 31 24 33 50 63 58 37 25 17 7 2 0 0 0 0 0 0 0 0 0 0 0 0
1 0 0 0 0 3 8 10 10 11 14 21 27 24 18 15 17 27 35 31 17 9 11 17 24 23 15 8 5 1 0 0 0 0 0 0 0 1 0 0 0 0 0
0 0 0 0 0 3 9 13 15 13 8 5 4 3 2 2 3 10 15 15 8 3 1 1 2 2 2 1 1 0 0 0 0 0 0 0 0 0 0 0 0 0 0
0 0 0 0 0 1 4 7 10 10 7 3 2 2 3 3 3 5 7 6 5 4 3 2 1 1 0 0 0 0 0 0 0 0 0 0 0 0 0 0 0 0 0
0 0 0 0 0 0 0 0 2 3 2 1 1 1 4 7 7 5 3 3 3 5 5 2 1 1 0 0 0 0 0 0 0 0 0 0 0 0 0 0 0 0 0
0 0 0 0 0 0 1 3 4 2 0 0 1 1 6 12 11 5 1 1 1 3 3 1 0 0 0 0 0 0 0 0 0 0 0 0 0 0 0 0 0 0 0
0 0 0 0 0 0 2 7 9 4 0 0 3 7 11 13 9 3 0 0 0 0 0 0 0 0 0 0 0 0 0 0 0 0 0 0 0 0 0 0 0 0 0
0 0 0 0 0 0 2 6 6 2 0 0 3 10 14 10 4 1 0 0 0 0 0 0 0 0 0 0 0 0 0 0 0 0 0 0 0 0 0 0 0 0 0
0 0 0 0 0 0 2 2 1 0 0 0 2 6 7 4 1 0 0 0 0 0 0 0 0 0 0 0 0 0 0 0 0 0 0 0 0 0 0 0 0 0 0
0 0 0 0 0 0 1 1 0 0 0 0 0 0 1 1 0 0 0 0 0 0 0 0 0 0 0 0 0 0 0 0 0 0 0 0 0 0 0 0 0 0 0
0 0 0 0 0 0 0 0 0 0 0 0 0 0 0 0 0 0 0 0 0 0 0 0 0 0 0 0 0 0 0 0 0 0 0 0 0 0 0 0 0 0 0
0 0 0 0 0 0 0 0 0 0 0 0 0 0 0 0 0 0 0 0 0 0 0 0 0 0 0 0 0 0 0 0 0 0 0 0 0 0 0 0 0 0 0
0 0 0 0 0 0 0 0 0 0 0 0 0 0 0 0 0 0 0 0 0 0 0 0 0 0 0 0 0 0 0 0 0 0 0 0 0 0 0 0 0 0 0
0 0 0 0 0 0 0 0 0 0 0 0 0 0 0 1 0 0 0 0 0 0 0 0 0 0 0 0 0 0 0 0 0 0 0 0 0 0 0 0 0 0 0
0 0 0 0 0 0 0 0 0 0 0 0 0 0 0 0 0 0 0 0 0 0 0 0 0 0 0 0 0 0 0 0 0 0 0 0 0 0 0 0 0 0 0
0 0 0 0 0 0 0 0 0 0 0 0 0 0 0 0 0 0 0 0 0 0 0 0 0 0 0 0 0 0 0 0 0 0 0 0 0 0 0 0 0 0 0
0 0 0 0 0 0 0 0 0 0 0 0 0 0 0 0 0 0 0 0 0 0 0 0 0 0 0 0 0 0 0 0 0 0 0 0 0 0 0 0 0 0 0
0 0 0 0 0 0 0 0 0 0 0 0 0 0 0 0 0 0 0 0 0 0 0 0 0 0 0 0 0 0 0 0 0 0 0 0 0 0 0 0 0 0 0
0 0 0 0 0 0 0 0 0 0 0 0 0 0 0 0 0 0 0 0 0 0 0 0 0 0 0 0 0 0 0 0 0 0 0 0 0 0 0 0 0 0 0
0 0 0 0 0 0 0 0 0 0 0 0 0 0 0 0 0 0 0 0 0 0 0 0 0 0 0 0 0 0 0 0 0 0 0 0 0 0 0 0 0 0 0
0 0 0 0 0 0 0 0 0 0 0 0 0 0 0 0 0 0 0 0 0 0 0 0 0 0 0 0 0 0 0 0 0 0 0 0 0 0 0 0 0 0 0
0 0 0 0 0 0 0 0 0 0 0 0 0 0 0 0 0 0 0 0 0 0 0 0 0 0 0 0 0 0 0 0 0 0 0 0 0 0 0 0 0 0 0
0 0 0 0 0 0 0 0 0 0 0 0 0 0 0 0 0 0 0 0 0 0 0 0 0 0 0 0 0 0 0 0 0 0 0 0 0 0 0 0 0 0 0
0 0 0 0 0 0 0 0 0 0 0 0 0 0 0 0 0 0 0 0 0 0 0 0 0 0 0 0 0 0 0 0 0 0 0 0 0 0 0 0 0 0 0

GEFSMW_con_probscp_006.txt.gz
Probability
82 75 69 71 79 88 93 95 96 94 92 91 94 96 98 99 99 99 99 100 100 99 97 94 92 93 96 99 100 100 100 100 100 98 94 87 71 50 43 56 69 58 37
73 56 42 43 53 69 79 83 88 93 93 92 91 92 94 97 97 97 98 99 99 98 95 92 89 89 92 95 98 99 99 99 99 96 93 89 80 62 50 59 71 65 50
51 31 14 13 21 36 50 61 79 92 94 89 81 77 80 84 89 94 97 98 97 96 91 86 85 86 87 91 96 98 97 94 88 82 78 77 77 70 61 61 66 64 58
19 11 4 3 5 11 21 37 63 85 91 87 76 67 64 65 71 82 91 95 96 91 83 78 81 85 86 87 89 88 85 76 62 51 46 49 54 52 45 40 40 40 36
1 1 1 1 1 2 5 15 37 66 84 88 84 76 69 62 60 67 77 88 92 84 72 68 74 81 80 76 71 66 58 45 30 21 18 22 27 23 15 11 10 10 9
0 0 0 0 0 0 1 5 22 52 79 89 88 84 79 72 67 66 72 82 85 76 63 57 63 71 70 61 52 42 29 19 11 6 5 8 11 8 2 0 0 0 1
0 0 1 1 0 1 3 12 33 58 73 75 72 69 67 65 66 71 78 83 79 70 57 46 47 54 55 47 36 23 13 6 3 1 1 3 4 2 0 0 0 0 1
0 1 2 2 1 4 12 29 50 59 53 45 43 42 41 40 46 62 77 80 69 55 44 33 28 29 29 25 17 9 4 2 1 0 0 1 1 0 0 0 0 0 0
0 0 1 1 2 9 25 40 47 42 28 18 16 18 18 18 24 41 58 60 46 31 23 17 12 10 7 6 3 2 1 0 0 0 0 0 0 0 0 0 0 0 0
0 0 0 0 2 13 29 35 31 25 16 6 3 4 5 7 11 20 28 28 20 12 8 6 4 2 0 0 0 0 0 0 0 0 0 0 0 0 0 0 0 0 0
0 0 0 0 2 11 22 24 20 18 13 6 2 1 1 1 2 5 7 6 4 4 4 3 2 1 0 0 0 0 0 0 0 0 0 0 0 0 0 0 0 0 0
0 0 0 0 2 8 15 15 12 12 10 6 4 1 0 0 0 0 0 0 0 0 1 1 1 0 0 0 0 0 0 0 0 0 0 0 0 0 0 0 0 0 0
0 0 1 2 4 9 15 12 6 5 5 4 2 1 0 0 0 0 0 0 0 0 0 0 0 0 0 0 0 0 0 0 0 0 0 0 0 0 0 0 0 0 0
0 0 3 4 6 15 25 20 8 2 1 1 1 0 0 0 0 0 0 0 0 0 0 0 0 0 0 0 0 0 0 0 0 0 0 0 0 0 0 0 0 0 0
0 0 2 3 6 19 34 29 14 5 2 0 0 0 0 0 0 0 0 0 0 0 0 0 0 0 0 0 0 0 0 0 0 0 0 0 0 0 0 0 0 0 0
0 0 0 3 10 22 35 38 26 13 5 1 0 1 0 0 0 0 0 0 0 0 0 0 0 0 0 0 0 0 0 0 0 0 0 0 0 0 0 0 0 0 0
0 0 0 5 14 21 36 47 39 21 7 1 0 0 0 0 0 0 0 0 0 0 0 0 0 0 0 0 0 0 0 0 0 0 0 0 0 0 0 0 0 0 0
0 0 0 6 14 19 30 45 42 25 9 1 0 0 0 0 0 0 0 0 0 0 0 0 0 0 0 0 0 0 0 0 0 0 0 0 0 0 0 0 0 0 0
2 3 3 11 25 27 26 31 35 25 11 1 0 0 0 0 0 0 0 0 0 0 0 0 0 0 0 0 0 0 0 0 0 0 0 0 0 0 0 0 0 0 0
3 5 6 23 49 56 44 34 29 24 12 1 0 0 0 0 0 0 0 0 0 0 0 0 0 0 0 0 0 0 0 0 0 0 0 0 0 0 0 0 0 0 0
2 3 6 25 59 79 76 57 36 25 14 4 1 1 0 0 0 0 0 0 0 0 0 0 0 0 0 0 0 0 0 0 0 0 0 0 0 0 0 0 0 0 0
0 0 3 16 42 71 85 76 56 36 21 8 3 1 1 0 0 0 0 0 0 0 0 0 0 0 0 0 0 0 0 0 0 0 0 0 0 0 0 0 0 0 0
0 0 1 5 16 38 62 72 66 49 28 12 8 6 3 0 0 0 0 0 0 0 0 0 0 0 0 0 0 0 0 0 0 0 0 0 0 0 0 0 0 0 0
0 0 0 0 2 10 26 45 57 54 32 14 11 10 4 0 0 0 0 0 0 0 0 0 0 0 0 0 0 0 0 0 0 0 0 0 0 0 0 0 0 0 0
0 0 0 0 0 1 5 17 38 49 36 17 8 6 2 0 0 0 0 0 0 0 0 0 0 0 0 0 0 0 0 0 0 0 0 0 0 0 0 0 0 0 0
0 0 0 0 0 0 0 6 24 44 40 18 5 2 0 0 0 0 0 0 0 0 0 0 0 0 0 0 0 0 0 0 0 0 0 0 0 0 0 0 0 0 0

GEFSMW_con_probscp_012.txt.gz
Probability
72 67 66 72 79 81 75 60 37 18 14 18 16 10 6 4 3 4 11 24 44 64 77 81 81 81 82 85 87 84 75 67 61 47 25 7 2 2 4 6 6 5 3
54 47 43 48 53 53 49 42 31 22 19 20 16 9 4 3 2 4 10 19 34 51 64 72 73 74 77 78 77 74 66 57 52 42 22 6 1 2 3 4 5 4 2
28 22 19 21 22 22 21 23 26 29 31 30 23 12 3 1 2 4 7 11 18 28 40 51 56 60 62 60 55 51 47 40 36 29 15 4 0 1 1 2 3 2 1
11 9 9 9 8 8 9 13 21 31 37 37 30 14 3 1 3 4 5 5 6 11 18 26 33 38 39 36 29 24 24 23 20 15 10 3 0 0 0 0 1 0 0
6 5 6 7 6 5 4 6 11 20 28 32 27 13 3 1 3 4 3 2 2 3 6 9 13 17 18 16 11 8 9 11 10 8 6 3 0 0 0 0 0 0 0
4 3 4 5 4 2 1 1 4 9 16 20 17 9 3 1 1 1 1 1 0 0 1 2 3 5 6 6 3 2 2 3 4 4 3 1 0 0 0 0 0 0 0
1 1 1 1 1 0 0 1 4 7 9 9 7 4 2 0 0 0 0 0 0 0 1 1 1 1 1 1 0 0 0 1 1 1 1 0 0 0 0 0 0 0 0
0 0 0 0 0 0 0 2 4 5 4 4 3 2 1 0 0 0 0 0 0 0 0 0 0 0 0 0 0 0 0 0 0 0 0 0 0 0 0 0 0 0 0
0 0 0 0 0 0 0 1 2 2 1 1 2 1 0 0 0 0 0 0 0 0 0 0 0 0 0 0 0 0 0 1 0 0 0 0 0 0 0 0 0 0 0
0 0 0 0 0 0 0 1 1 0 0 0 0 0 0 0 0 0 0 0 0 0 0 0 0 0 0 0 0 0 0 0 0 0 0 0 0 0 0 0 0 0 0
0 0 0 0 0 0 0 1 1 0 0 0 0 0 0 0 0 0 0 0 0 0 0 0 0 0 0 0 0 0 0 0 0 0 0 0 0 0 0 0 0 0 0
0 0 0 0 0 0 0 1 1 0 0 0 0 0 0 0 0 0 0 0 0 0 0 0 0 0 0 0 0 0 0 0 0 0 0 0 0 0 0 0 0 0 0
0 0 0 0 0 0 0 0 0 0 0 0 0 0 0 0 0 0 0 0 0 0 0 0 0 0 0 0 0 0 0 0 0 0 0 0 0 0 0 0 0 0 0
0 0 0 0 0 0 0 0 0 0 0 0 0 0 0 0 0 0 0 0 0 0 0 0 0 0 0 0 0 0 0 0 0 0 0 0 0 0 0 0 0 0 0
0 0 0 0 0 0 0 0 0 0 0 0 0 0 0 0 0 0 0 0 0 0 0 0 0 0 0 0 0 0 0 0 0 0 0 0 0 0 0 0 0 0 0
0 0 0 0 0 0 0 0 0 0 0 0 0 0 0 0 0 0 0 0 0 0 0 0 0 0 0 0 0 0 0 0 0 0 0 0 0 0 0 0 0 0 0
0 0 0 0 0 0 0 0 0 0 0 0 0 0 0 0 0 0 0 0 0 0 0 0 0 0 0 0 0 0 0 0 0 0 0 0 0 0 0 0 0 0 0
0 0 0 0 0 0 0 0 0 0 0 0 0 0 0 0 0 0 0 0 0 0 0 0 0 0 0 0 0 0 0 0 0 0 0 0 0 0 0 0 0 0 0
0 0 0 0 0 0 0 0 0 0 0 0 0 0 0 0 0 0 0 0 0 0 0 0 0 0 0 0 0 0 0 0 0 0 0 0 0 0 0 0 0 0 0
0 0 0 0 0 0 0 0 0 0 0 0 0 0 0 0 0 0 0 0 0 0 0 0 0 0 0 0 0 0 0 0 0 0 0 0 0 0 0 0 0 0 0
0 0 0 0 0 0 0 0 0 0 0 0 0 0 0 0 0 0 0 0 0 0 0 0 0 0 0 0 0 0 0 0 0 0 0 0 0 0 0 0 0 0 0
0 0 0 0 0 0 0 0 0 0 0 0 0 0 0 0 0 0 0 0 0 0 0 0 0 0 0 0 0 0 0 0 0 0 0 0 0 0 0 0 0 0 0
0 0 0 0 0 0 0 0 0 0 0 0 0 0 0 0 0 0 0 0 0 0 0 0 0 0 0 0 0 0 0 0 0 0 0 0 0 0 0 0 0 0 0
0 0 0 0 0 0 0 0 0 0 0 0 0 0 0 0 0 0 0 0 0 0 0 0 0 0 0 0 0 0 0 0 0 0 0 0 0 0 0 0 0 0 0
0 0 0 0 0 0 0 0 0 0 0 0 0 0 0 0 0 0 0 0 0 0 0 0 0 0 0 0 0 0 0 0 0 0 0 0 0 0 0 0 0 0 0
0 0 0 0 0 0 0 0 0 0 0 0 0 0 0 0 0 0 0 0 0 0 0 0 0 0 0 0 0 0 0 0 0 0 0 0 0 0 0 0 0 0 0

GEFSMW_con_probscp_018.txt.gz
Probability
81 75 67 59 51 40 31 23 14 7 6 5 3 2 1 1 2 3 4 5 7 12 17 24 36 47 53 57 62 68 73 77 78 71 55 36 24 21 23 21 13 6 4
70 59 45 36 29 23 18 14 9 6 6 5 3 3 2 2 3 3 2 2 3 6 10 15 24 34 40 45 51 57 64 69 69 63 48 29 16 12 12 14 11 6 5
45 32 18 12 8 6 5 6 7 8 9 7 6 6 5 3 2 2 1 0 0 1 2 5 10 18 24 29 33 42 53 60 60 55 43 25 12 5 3 5 6 5 4
17 10 4 2 1 1 2 5 7 9 9 7 6 7 5 3 1 1 0 0 0 0 0 1 3 8 12 15 19 28 43 54 56 50 39 26 14 6 1 1 2 2 1
3 2 0 0 0 0 1 3 4 4 4 3 3 3 2 1 0 0 0 0 0 0 0 0 0 2 5 7 9 13 25 40 45 41 31 21 13 7 2 1 1 1 0
0 0 0 0 0 0 0 0 0 0 0 0 0 0 0 0 0 0 0 0 0 0 0 0 0 0 2 3 3 3 9 19 25 23 18 13 8 5 3 1 0 0 0
0 0 0 0 0 0 0 0 0 0 0 0 0 0 0 0 0 0 0 0 0 0 0 0 0 0 0 0 0 0 2 5 7 7 6 5 4 3 2 1 0 0 0
0 0 0 0 0 0 0 0 0 0 0 0 0 0 0 0 0 0 0 0 0 0 0 0 0 0 0 0 0 0 0 1 1 0 1 1 1 1 1 1 0 0 0
0 0 0 0 0 0 0 0 0 0 0 0 0 0 0 0 0 0 0 0 0 0 0 0 0 0 0 0 0 0 0 0 0 0 0 0 0 0 0 0 0 0 0
0 0 0 0 0 0 0 0 0 0 0 0 0 0 0 0 0 0 0 0 0 0 0 0 0 0 0 0 0 0 0 0 0 0 0 0 0 0 0 0 0 0 0
0 0 0 0 0 0 0 0 0 0 0 0 0 0 0 0 0 0 0 0 0 0 0 0 0 0 0 0 0 0 0 0 0 0 0 0 0 0 0 0 0 0 0
0 0 0 0 0 0 0 0 0 0 0 0 0 0 0 0 0 0 0 0 0 0 0 0 0 0 0 0 0 0 0 0 0 0 0 0 0 0 0 0 0 0 0
0 0 0 0 0 0 0 0 0 0 0 0 0 0 0 0 0 0 0 0 0 0 0 0 0 0 0 0 0 0 0 0 0 0 0 0 0 0 0 0 0 0 0
0 0 0 0 0 0 0 0 0 0 0 0 0 0 0 0 0 0 0 0 0 0 0 0 0 0 0 0 0 0 0 0 0 0 0 0 0 0 0 0 0 0 0
0 0 0 0 0 0 0 0 0 0 0 0 0 0 0 0 0 0 0 0 0 0 0 0 0 0 0 0 0 0 0 0 0 0 0 0 0 0 0 0 0 0 0
0 0 0 0 0 0 0 0 0 0 0 0 0 0 0 0 0 0 0 0 0 0 0 0 0 0 0 0 0 0 0 0 0 0 0 0 0 0 0 0 0 0 0
0 0 0 0 0 0 0 0 0 0 0 0 0 0 0 0 0 0 0 0 0 0 0 0 0 0 0 0 0 0 0 0 0 0 0 0 0 0 0 0 0 0 0
0 0 0 0 0 0 0 0 0 0 0 0 0 0 0 0 0 0 0 0 0 0 0 0 0 0 0 0 0 0 0 0 0 0 0 0 0 0 0 0 0 0 0
0 0 0 0 0 0 0 0 0 0 0 0 0 0 0 0 0 0 0 0 0 0 0 0 0 0 0 0 0 0 0 0 0 0 0 0 0 0 0 0 0 0 0
0 0 0 0 0 0 0 0 0 0 0 0 0 0 0 0 0 0 0 0 0 0 0 0 0 0 0 0 0 0 0 0 0 0 0 0 0 0 0 0 0 0 0
0 0 0 0 0 0 0 0 0 0 0 0 0 0 0 0 0 0 0 0 0 0 0 0 0 0 0 0 0 0 0 0 0 0 0 0 0 0 0 0 0 0 0
0 0 0 0 0 0 0 0 0 0 0 0 0 0 0 0 0 0 0 0 0 0 0 0 0 0 0 0 0 0 0 0 0 0 0 0 0 0 0 0 0 0 0
0 0 0 0 0 0 0 0 0 0 0 0 0 0 0 0 0 0 0 0 0 0 0 0 0 0 0 0 0 0 0 0 0 0 0 0 0 0 0 0 0 0 0
0 0 0 0 0 0 0 0 0 0 0 0 0 0 0 0 0 0 0 0 0 0 0 0 0 0 0 0 0 0 0 0 0 0 0 0 0 0 0 0 0 0 0
0 0 0 0 0 0 0 0 0 0 0 0 0 0 0 0 0 0 0 0 0 0 0 0 0 0 0 0 0 0 0 0 0 0 0 0 0 0 0 0 0 0 0
0 0 0 0 0 0 0 0 0 0 0 0 0 0 0 0 0 0 0 0 0 0 0 0 0 0 0 0 0 0 0 0 0 0 0 0 0 0 0 0 0 0 0

GEFSMW_con_probscp_024.txt.gz
Probability
83 86 85 81 81 80 73 60 48 39 32 24 16 8 3 1 0 0 0 1 2 4 4 2 0 0 2 6 11 18 24 33 48 56 55 53 57 66 76 81 82 78 76
89 89 87 84 80 75 65 51 41 33 29 30 26 17 8 3 1 1 1 2 2 3 3 2 0 0 2 4 7 13 17 23 35 45 46 43 43 50 61 73 79 78 77
91 89 85 78 70 62 52 42 37 36 38 44 42 29 16 5 1 1 3 3 2 1 1 1 0 0 1 1 4 7 10 13 21 35 45 39 31 33 44 62 74 77 77
87 84 78 69 60 50 40 34 36 44 55 64 60 43 23 9 2 1 2 3 2 1 0 0 0 0 0 0 2 4 7 10 15 29 44 44 38 37 38 49 63 71 75
72 70 65 59 53 46 35 28 35 48 63 74 75 60 38 20 11 6 3 2 3 2 1 0 0 0 0 0 1 2 5 8 11 21 32 42 48 48 41 38 48 62 69
44 44 42 41 41 40 34 31 39 54 65 75 81 76 61 44 30 18 8 3 3 2 1 0 0 0 0 0 0 2 3 4 8 14 23 33 43 47 43 37 40 53 63
16 16 17 20 23 26 28 34 47 59 67 74 81 82 77 64 47 29 13 4 2 1 0 0 0 0 0 0 0 2 3 3 4 9 17 27 33 38 44 43 41 50 59
2 3 4 5 7 9 15 29 45 56 62 68 76 81 80 70 56 41 24 12 6 3 1 1 0 0 0 0 0 1 3 3 3 5 10 19 25 32 42 47 49 55 63
0 0 0 0 0 1 6 15 28 39 46 53 61 69 72 68 62 55 43 28 18 11 6 3 1 0 0 0 0 0 1 2 2 3 6 11 18 24 34 44 54 62 67
0 0 0 0 0 0 1 4 9 16 22 29 38 47 55 60 63 62 56 45 33 23 15 8 3 0 0 0 0 0 0 1 1 2 3 5 10 16 24 35 49 62 68
0 0 0 0 0 0 0 0 1 2 5 8 15 23 33 44 52 55 56 52 45 35 23 13 5 1 0 0 0 0 0 0 0 1 1 1 4 9 16 25 38 52 61
0 0 0 0 0 0 0 0 0 0 0 0 3 6 13 23 32 41 46 48 47 40 28 17 10 3 0 0 0 0 0 0 0 0 0 0 1 5 11 18 26 34 37
0 0 0 0 0 0 0 0 0 0 0 0 0 0 2 6 12 21 28 33 39 38 29 22 16 7 1 0 0 0 0 0 0 0 0 0 1 3 6 9 13 15 14
0 0 0 0 0 0 0 0 0 0 0 0 0 0 0 0 2 5 9 15 23 28 27 25 20 11 3 0 0 0 0 0 0 0 0 0 0 1 2 3 4 4 4
0 0 0 0 0 0 0 0 0 0 0 0 0 0 0 0 0 0 1 3 9 17 22 23 20 13 4 0 0 0 0 0 0 0 0 0 0 0 0 0 1 2 2
0 0 0 0 0 0 0 0 0 0 0 0 0 0 0 0 0 0 0 0 2 9 15 17 16 11 4 0 0 0 0 0 0 0 0 0 0 0 0 0 1 1 0
0 0 0 0 0 0 0 0 0 0 0 0 0 0 0 0 0 0 0 0 1 4 7 10 12 10 4 0 0 0 0 0 0 0 0 0 0 0 0 0 0 0 0
0 0 0 0 0 0 0 0 0 0 0 0 0 0 0 0 0 0 0 0 0 0 1 4 8 9 4 0 0 0 0 0 0 0 0 0 0 0 0 0 0 0 0
0 0 0 0 0 0 0 0 0 0 0 0 0 0 0 0 0 0 0 0 0 0 0 1 4 6 4 1 0 0 0 0 0 0 0 0 0 0 0 0 0 0 0
0 0 0 0 0 0 0 0 0 0 0 0 0 0 0 0 0 0 0 0 0 0 0 0 1 3 3 1 0 0 0 0 0 0 0 0 0 0 0 0 0 0 0
0 0 0 0 0 0 0 0 0 0 0 0 0 0 0 0 0 0 0 0 0 0 0 0 0 1 1 0 0 0 1 0 0 0 0 0 0 0 0 0 0 0 0
0 0 0 0 0 0 0 0 0 0 0 0 0 0 0 0 0 0 0 0 0 0 0 0 1 2 1 0 0 0 0 0 0 0 0 0 0 0 0 0 0 0 0
0 0 0 0 0 0 0 0 0 0 0 0 0 0 0 0 0 0 0 0 0 0 0 0 1 3 3 1 0 0 0 0 0 0 0 0 0 0 0 0 0 0 0
0 0 0 0 0 0 0 0 0 0 0 0 0 0 0 0 0 0 0 0 0 0 0 0 1 2 2 1 0 0 0 0 0 0 0 0 0 0 0 0 0 0 0
0 0 0 0 0 0 0 0 0 0 0 0 0 0 0 0 0 0 0 0 0 0 0 0 0 1 1 0 0 0 0 0 0 0 0 0 0 0 0 0 0 0 0
0 0 0 0 0 0 0 0 0 0 0 0 0 0 0 0 0 0 0 0 0 0 0 0 0 0 0 0 0 0 0 0 0 0 0 0 0 0 0 0 0 0 0

GEFSMW_con_probscp_030.txt.gz
Probability
84 82 76 74 77 81 87 92 94 94 92 88 86 84 70 43 26 26 30 25 15 9 6 3 2 2 2 2 1 1 1 2 7 12 12 11 22 39 55 69 77 76 71
73 66 56 54 58 64 71 79 85 86 84 82 81 78 65 43 28 30 36 34 25 15 8 4 3 2 1 1 1 1 1 2 5 9 9 8 13 24 36 53 70 76 77
55 45 34 33 39 46 53 62 71 76 78 80 79 72 63 50 39 42 50 52 42 26 14 7 5 3 1 0 0 1 1 1 2 4 7 6 6 8 15 28 46 66 77
37 31 25 26 33 40 48 56 64 71 77 83 82 76 69 61 55 58 66 65 50 33 22 14 10 6 2 1 1 2 3 2 1 2 4 5 4 3 4 10 22 43 61
24 23 22 23 27 34 43 52 60 68 77 84 85 79 72 68 67 71 76 71 56 43 35 30 25 16 8 4 4 5 6 4 2 2 2 3 2 1 1 2 8 23 39
13 13 14 14 15 20 28 38 48 58 66 74 78 77 75 74 74 77 79 76 69 62 56 53 49 36 19 9 7 7 8 7 6 5 4 3 1 0 0 0 2 10 20
4 4 4 5 5 7 11 19 29 37 42 48 57 65 70 73 77 79 80 82 82 80 77 73 67 53 34 18 11 9 8 8 7 7 6 5 2 1 0 0 0 4 9
0 0 0 0 1 1 3 6 12 16 17 20 29 39 48 57 67 76 82 86 87 88 87 83 76 66 49 32 21 14 8 6 6 5 5 5 4 2 1 1 0 1 3
0 0 0 0 0 0 0 1 3 4 5 6 9 14 21 30 42 56 69 77 82 85 86 85 81 74 64 51 37 23 12 7 6 6 6 6 4 3 3 2 1 0 1
0 0 0 0 0 0 0 0 0 1 1 1 2 3 5 9 16 27 38 50 61 70 77 82 82 78 72 64 50 33 20 13 10 8 7 5 2 3 3 3 1 1 2
0 0 0 0 0 0 0 0 0 1 0 0 0 0 1 1 4 7 11 19 30 40 53 67 76 77 73 68 56 39 25 17 10 6 4 2 1 2 3 3 2 2 3
0 0 0 0 0 0 0 0 0 0 0 0 0 0 0 0 1 1 1 4 8 13 22 38 55 66 70 68 58 40 24 17 10 5 3 1 1 2 2 2 1 1 2
0 0 0 0 0 0 0 0 0 0 0 0 0 0 0 0 0 0 0 1 1 2 5 12 26 44 59 62 54 39 25 18 13 9 5 1 0 1 1 1 1 1 1
0 0 0 0 0 0 1 2 2 2 2 1 0 1 1 1 0 0 0 0 0 1 1 2 7 20 34 43 43 38 29 22 17 12 6 2 0 0 1 2 2 2 2
0 0 0 0 0 1 3 5 6 6 5 3 1 1 2 2 0 0 0 0 0 0 0 0 1 5 12 19 25 28 26 24 20 13 8 3 0 0 1 1 1 1 1
0 0 0 1 2 3 4 6 6 7 7 4 2 1 2 1 0 0 0 0 0 0 0 0 0 1 2 4 7 11 16 21 20 14 9 3 0 0 0 0 0 0 0
0 0 0 1 3 3 4 5 4 4 5 4 3 3 2 1 0 0 1 2 2 1 0 0 0 0 0 0 0 1 7 15 18 15 9 3 0 0 0 0 0 0 0
0 0 0 1 1 1 2 2 2 1 2 3 3 3 3 1 1 2 4 6 5 2 0 0 0 0 0 0 0 0 3 8 12 11 7 3 1 0 0 0 0 0 0
0 0 0 0 0 0 1 1 0 0 1 1 1 1 1 1 1 3 6 7 6 3 0 0 0 0 0 0 0 0 1 3 5 5 3 2 1 0 0 0 0 0 0
0 0 0 1 2 5 6 4 1 0 0 0 0 0 0 0 0 2 4 4 3 2 0 0 0 0 0 0 0 0 0 1 1 1 1 0 0 0 0 0 0 0 0
0 0 1 2 6 11 12 7 2 0 0 0 0 0 0 0 0 1 2 2 1 0 0 0 0 0 0 0 0 0 0 0 0 0 0 0 0 0 0 0 0 0 0
0 0 1 3 7 11 10 5 1 0 0 0 0 0 0 0 0 0 0 0 0 0 0 0 0 0 0 0 0 0 0 0 0 0 0 0 0 0 0 0 0 0 0
0 0 1 2 4 6 5 1 0 0 0 0 0 0 0 0 0 0 0 0 0 0 0 0 0 0 1 1 0 0 0 0 0 0 0 0 0 0 0 0 0 0 0
0 0 0 1 1 1 1 0 0 0 0 0 0 0 0 0 0 0 0 0 0 0 0 0 0 0 1 1 0 0 0 0 0 0 0 0 0 0 0 0 0 0 0
0 0 0 0 0 0 0 0 0 0 0 0 0 0 0 0 0 0 0 0 0 0 0 0 0 0 1 1 0 0 0 0 0 0 0 0 0 0 0 0 0 0 0
0 0 0 0 0 0 0 0 0 0 0 0 0 0 0 0 0 0 0 0 0 0 0 0 0 0 0 0 0 0 0 0 0 0 0 0 0 0 0 0 0 0 0

GEFSMW_con_probscp_036.txt.gz
Probability
33 23 13 7 6 7 7 6 6 8 11 12 12 13 11 8 6 4 4 5 4 2 1 0 0 0 0 0 0 0 0 0 0 0 0 0 0 0 0 0 1 2 3
22 16 8 4 5 6 5 3 3 5 7 9 9 10 9 8 6 4 3 3 3 2 1 0 0 0 0 0 0 0 0 0 0 0 0 0 0 0 0 0 0 1 2
8 6 3 3 4 4 2 1 1 2 4 5 7 8 9 8 7 5 4 3 3 2 1 0 0 0 0 0 0 0 0 0 0 0 0 0 0 0 0 0 0 0 1
2 2 1 2 3 2 1 0 0 1 2 3 5 7 8 8 8 6 5 4 3 2 0 0 0 0 0 0 0 0 0 0 0 0 0 0 0 0 0 0 0 0 0
1 1 0 1 1 1 0 0 0 0 1 1 2 3 5 5 5 5 4 4 3 1 0 0 0 0 0 0 0 0 0 0 0 0 0 0 0 0 0 0 0 0 0
0 0 0 0 0 0 0 0 0 0 0 0 0 1 1 1 1 2 2 1 1 1 1 1 1 1 1 0 0 0 0 0 0 0 0 0 0 0 0 0 0 0 0
0 0 0 0 0 0 0 0 0 0 0 0 0 0 0 0 0 0 0 1 1 1 2 2 1 2 2 1 1 1 0 0 0 0 0 0 0 0 0 0 0 0 0
0 0 0 0 0 0 0 0 0 0 0 0 0 0 0 0 0 0 0 1 1 1 1 1 1 2 2 2 2 1 0 0 0 0 0 0 0 0 0 0 0 0 0
0 0 0 0 0 0 0 0 0 0 0 0 0 0 0 0 0 0 0 1 1 0 0 0 0 1 1 2 1 1 0 0 0 0 0 0 0 0 0 0 0 0 0
0 0 0 0 0 0 0 0 0 0 0 0 0 0 0 0 0 0 0 0 0 0 0 0 0 0 0 0 0 0 0 0 0 0 0 0 0 0 0 0 0 0 0
0 0 0 0 0 0 0 0 0 0 0 0 0 0 0 0 0 0 0 0 0 0 0 0 0 0 0 0 0 0 0 0 0 0 0 0 0 0 0 0 0 0 0
0 0 0 0 0 0 0 0 0 0 0 0 0 0 0 0 0 0 0 0 0 0 0 0 0 0 0 0 0 0 0 0 0 0 0 0 0 0 0 0 0 0 0
0 0 0 0 0 0 0 0 0 0 0 0 0 0 0 0 0 0 0 0 0 0 0 0 0 0 0 0 0 0 0 0 0 0 0 0 0 0 0 0 0 0 0
0 0 0 0 0 0 0 0 0 0 0 0 0 0 0 0 0 0 0 0 0 0 0 0 0 0 0 0 0 0 0 0 0 0 0 0 0 0 0 0 0 0 0
0 0 0 0 0 0 0 0 0 0 0 0 0 0 0 0 0 0 0 0 0 0 0 0 0 0 0 0 0 0 0 0 0 0 0 0 0 0 0 0 0 0 0
0 0 0 0 0 0 0 0 0 0 0 0 0 0 0 0 0 0 0 0 0 0 0 0 0 0 0 0 0 0 0 0 0 0 0 0 0 0 0 0 0 0 0
0 0 0 0 0 0 0 0 0 0 0 0 0 0 0 0 0 0 0 0 0 0 0 0 0 0 0 0 0 0 0 0 0 0 0 0 0 0 0 0 0 0 0
0 0 0 0 0 0 0 0 0 0 0 0 0 0 0 0 0 0 0 0 0 0 0 0 0 0 0 0 0 0 0 0 0 0 0 0 0 0 0 0 0 0 0
0 0 0 0 0 0 0 0 0 0 0 0 0 0 0 0 0 0 0 0 0 0 0 0 0 0 0 0 0 0 0 0 0 0 0 0 0 0 0 0 0 0 0
0 0 0 0 0 0 0 0 0 0 0 0 0 0 0 0 0 0 0 0 0 0 0 0 0 0 0 0 0 0 0 0 0 0 0 0 0 0 0 0 0 0 0
0 0 0 0 0 0 0 0 0 0 0 0 0 0 0 0 0 0 0 0 0 0 0 0 0 0 0 0 0 0 0 0 0 0 0 0 0 0 0 0 0 0 0
0 0 0 0 0 0 0 0 0 0 0 0 0 0 0 0 0 0 0 0 0 0 0 0 0 0 0 0 0 0 0 0 0 0 0 0 0 0 0 0 0 0 0
0 0 0 0 0 0 0 0 0 0 0 0 0 0 0 0 0 0 0 0 0 0 0 0 0 0 0 0 0 0 0 0 0 0 0 0 0 0 0 0 0 0 0
0 0 0 0 0 0 0 0 0 0 0 0 0 0 0 0 0 0 0 0 0 0 0 0 0 0 0 0 0 0 0 0 0 0 0 0 0 0 0 0 0 0 0
0 0 0 0 0 0 0 0 0 0 0 0 0 0 0 0 0 0 0 0 0 0 0 0 0 0 0 0 0 0 0 0 0 0 0 0 0 0 0 0 0 0 0
0 0 0 0 0 0 0 0 0 0 0 0 0 0 0 0 0 0 0 0 0 0 0 0 0 0 0 0 0 0 0 0 0 0 0 0 0 0 0 0 0 0 0

GEFSMW_con_probscp_042.txt.gz
Probability
3 2 3 4 3 2 2 2 2 2 3 4 6 7 6 4 4 6 7 7 9 10 8 5 2 0 0 0 0 0 0 0 0 0 0 0 0 0 0 0 0 0 0
2 3 4 3 2 2 2 2 1 1 1 2 3 4 4 3 4 4 5 5 6 6 5 3 2 0 0 0 0 0 0 0 0 0 0 0 0 0 0 0 0 0 0
1 2 2 1 1 1 1 1 0 0 0 0 1 1 1 2 3 2 1 2 2 2 1 1 1 0 0 0 0 0 0 0 0 0 0 0 0 0 0 0 0 0 0
0 1 1 0 0 0 0 0 0 0 0 0 0 0 0 1 1 0 0 0 0 0 0 0 0 0 0 0 0 0 0 0 0 0 0 0 0 0 0 0 0 0 0
0 0 0 0 0 0 0 0 0 0 0 0 0 0 0 0 0 0 0 0 0 0 0 0 0 0 0 0 0 0 0 0 0 0 0 0 0 0 0 0 0 0 0
0 0 0 0 0 0 0 0 0 0 0 0 0 0 0 0 0 0 0 0 0 0 0 0 0 0 0 0 0 0 0 0 0 0 0 0 0 0 0 0 0 0 0
0 0 0 0 0 0 0 0 0 0 0 0 0 0 0 0 0 0 0 0 0 0 0 0 0 0 0 0 0 0 0 0 0 0 0 0 0 0 0 0 0 0 0
0 0 0 0 0 0 0 0 0 0 0 0 0 0 0 0 0 0 0 0 0 0 0 0 0 0 0 0 0 0 0 0 1 1 0 0 0 0 0 0 0 0 0
0 0 0 0 0 0 0 0 0 0 0 0 0 0 0 0 0 0 0 0 0 0 0 0 0 0 0 0 0 0 0 1 2 2 1 1 0 0 0 0 0 0 0
0 0 0 0 0 0 0 0 0 0 0 0 0 0 0 0 0 0 0 0 0 0 0 0 0 0 0 0 0 0 0 1 2 3 3 2 1 0 0 0 0 0 0
0 0 0 0 0 0 0 0 0 0 0 0 0 0 0 0 0 0 0 0 0 0 0 0 0 0 0 0 0 0 0 1 2 3 3 2 1 0 0 0 0 0 0
0 0 0 0 0 0 0 0 0 0 0 0 0 0 0 0 0 0 0 0 0 0 0 0 0 0 0 0 0 0 0 0 1 1 2 2 1 0 0 0 0 0 0
0 0 0 0 0 0 0 0 0 0 0 0 0 0 0 0 0 0 0 0 0 0 0 0 0 0 0 0 0 0 0 0 0 0 1 1 0 0 0 0 0 0 0
0 0 0 0 0 0 0 0 0 0 0 0 0 0 0 0 0 0 0 0 0 0 0 0 0 0 0 0 0 0 0 0 0 0 0 0 0 0 0 0 0 0 0
0 0 0 0 0 0 0 0 0 0 0 0 0 0 0 0 0 0 0 0 0 0 0 0 0 0 0 0 0 0 0 0 0 0 0 0 0 0 0 0 0 0 0
0 0 0 0 0 0 0 0 0 0 0 0 0 0 0 0 0 0 0 0 0 0 0 0 0 0 0 0 0 0 0 0 0 0 0 0 0 0 0 0 0 0 0
0 0 0 0 0 0 0 0 0 0 0 0 0 0 0 0 0 0 0 0 0 0 0 0 0 0 0 0 0 0 0 0 0 0 0 0 0 0 0 0 0 0 0
0 0 0 0 0 0 0 0 0 0 0 0 0 0 0 0 0 0 0 0 0 0 0 0 0 0 0 0 0 0 0 0 0 0 0 0 0 0 0 0 0 0 0
0 0 0 0 0 0 0 0 0 0 0 0 0 0 0 0 0 0 0 0 0 0 0 0 0 0 0 0 0 0 0 0 0 0 0 0 0 0 0 0 0 0 0
0 0 0 0 0 0 0 0 0 0 0 0 0 0 0 0 0 0 0 0 0 0 0 0 0 0 0 0 0 0 0 0 0 0 0 0 0 0 0 0 0 0 0
0 0 0 0 0 0 0 0 0 0 0 0 0 0 0 0 0 0 0 0 0 0 0 0 0 0 0 0 0 0 0 0 0 0 0 0 0 0 0 0 0 0 0
0 0 0 0 0 0 0 0 0 0 0 0 0 0 0 0 0 0 0 0 0 0 0 0 0 0 0 0 0 0 0 0 0 0 0 0 0 0 0 0 0 0 0
0 0 0 0 0 0 0 0 0 0 0 0 0 0 0 0 0 0 0 0 0 0 0 0 0 0 0 0 0 0 0 0 0 0 0 0 0 0 0 0 0 0 0
0 0 0 0 0 0 0 0 0 0 0 0 0 0 0 0 0 0 0 0 0 0 0 0 0 0 0 0 0 0 0 0 0 0 0 0 0 0 0 0 0 0 0
0 0 0 0 0 0 0 0 0 0 0 0 0 0 0 0 0 0 0 0 0 0 0 0 0 0 0 0 0 0 0 0 0 0 0 0 0 0 0 0 0 0 0
0 0 0 0 0 0 0 0 0 0 0 0 0 0 0 0 0 0 0 0 0 0 0 0 0 0 0 0 0 0 0 0 0 0 0 0 0 0 0 0 0 0 0

GEFSMW_con_probscp_048.txt.gz
Probability
3 4 7 9 10 14 20 25 27 25 25 24 22 21 19 18 16 14 14 14 14 17 23 27 30 31 29 29 32 31 27 22 17 11 5 1 0 0 0 0 0 0 0
2 4 5 5 6 8 12 15 15 14 14 14 13 13 13 12 11 10 9 8 8 11 15 20 23 25 27 28 30 28 22 17 13 9 4 1 0 0 0 0 0 0 0
2 2 3 2 2 3 3 4 4 5 4 4 3 4 5 5 6 6 5 3 2 4 8 11 14 18 21 23 24 21 17 12 8 4 2 0 0 0 0 0 0 0 0
1 1 1 1 0 0 0 1 2 3 3 2 1 1 1 1 2 3 2 1 0 1 3 5 8 12 15 16 17 18 17 11 5 1 0 0 0 0 0 0 0 0 0
0 0 0 0 0 0 0 0 1 2 2 2 2 2 1 1 1 1 0 0 0 0 1 1 3 6 8 10 14 20 18 11 5 2 1 1 0 0 0 0 0 0 0
0 0 0 0 0 0 0 0 0 1 1 1 2 2 3 3 2 1 1 0 0 0 0 0 1 1 3 6 11 17 17 12 8 8 7 4 1 0 0 0 0 0 0
0 0 0 0 0 0 0 0 0 0 0 0 1 1 2 3 2 2 1 0 0 0 0 0 0 0 1 2 5 10 13 13 12 12 14 11 6 2 0 0 0 0 0
0 0 0 0 0 0 0 0 0 0 0 0 0 0 1 1 1 1 0 0 0 0 0 0 0 0 0 0 1 5 9 12 13 14 17 19 16 11 7 4 3 2 2
0 0 0 0 0 0 0 0 0 0 0 0 0 0 0 0 0 0 0 0 0 0 0 0 0 0 0 0 0 2 5 9 13 17 20 23 25 25 21 15 11 9 7
0 0 0 0 0 0 0 0 0 0 0 0 0 0 0 0 0 0 0 0 0 0 0 0 0 0 0 0 0 0 2 5 9 15 18 21 27 33 32 27 23 19 16
0 0 0 0 0 0 0 0 0 0 0 0 0 0 0 0 0 0 0 0 0 0 0 0 0 0 0 0 0 0 1 2 4 6 9 15 25 34 37 34 30 28 26
0 0 0 0 0 0 0 0 0 0 0 0 0 0 0 0 0 0 0 0 0 0 0 0 0 0 0 0 0 0 1 1 1 1 2 7 16 28 37 39 35 32 31
0 0 0 0 0 0 0 0 0 0 0 0 0 0 0 0 0 0 0 0 0 0 0 1 1 0 0 0 0 0 0 0 0 0 0 2 7 17 29 37 39 36 31
0 0 0 0 0 0 0 0 0 0 0 0 0 0 0 0 0 0 0 0 0 0 0 1 1 0 0 0 0 0 0 0 0 0 0 0 2 7 15 26 37 41 38
0 0 0 0 0 0 0 0 0 0 0 0 0 0 0 0 0 0 0 0 0 0 0 1 1 1 0 0 1 0 0 0 0 0 0 0 0 1 5 12 24 34 38
0 0 0 0 0 0 0 0 0 0 0 0 0 0 0 0 0 0 0 0 0 0 0 0 0 1 1 0 0 0 0 0 0 0 0 0 0 0 1 3 8 15 21
0 0 0 0 0 0 0 0 0 0 0 0 0 0 0 0 0 0 0 0 0 0 0 0 0 1 2 1 0 0 0 0 0 0 0 0 0 0 0 0 0 2 4
0 0 0 0 0 0 0 0 0 0 0 0 0 0 0 0 0 0 0 0 0 0 1 0 1 2 2 1 0 0 0 0 0 0 0 0 0 0 0 0 0 0 1
0 0 0 0 0 0 0 0 0 0 0 0 0 0 0 0 0 0 0 0 0 0 0 0 1 1 1 0 0 1 1 1 0 0 0 0 0 0 0 0 1 1 1
0 0 0 0 0 0 0 0 0 0 0 0 0 0 0 0 0 0 0 0 0 0 0 0 0 0 0 0 0 1 1 1 0 0 0 0 0 0 0 0 1 2 2
0 0 0 0 0 0 0 0 0 0 0 0 0 0 0 0 0 0 0 0 0 0 0 0 0 0 0 0 0 0 0 0 0 0 0 0 0 0 0 0 1 1 1
0 0 0 0 0 0 0 0 0 0 0 0 0 0 0 0 0 0 0 0 0 0 0 0 0 0 0 0 0 0 0 0 1 1 0 0 0 0 0 0 0 0 0
0 0 0 0 0 0 0 0 0 0 0 0 0 0 0 0 0 0 0 0 0 0 0 0 0 0 0 0 0 0 0 0 1 1 0 0 0 0 0 0 0 0 0
0 0 0 0 0 0 0 0 0 0 0 0 0 0 0 0 0 0 0 0 0 0 0 0 0 0 0 0 0 0 0 0 0 0 0 0 0 0 0 0 0 0 0
0 0 0 0 0 0 0 0 0 0 0 0 0 0 0 0 0 0 0 0 0 0 0 0 0 0 0 0 0 0 0 0 0 0 0 0 0 0 0 0 0 0 0
0 0 0 0 0 0 0 0 0 0 0 0 0 0 0 0 0 0 0 0 0 0 0 0 0 0 0 0 0 0 0 0 0 0 0 0 0 0 0 0 0 0 0

GEFSMW_con_probscp_054.txt.gz
Probability
6 8 9 11 17 27 38 50 57 58 60 60 56 55 56 53 47 42 39 34 28 27 31 32 31 30 30 31 28 22 16 13 13 12 11 9 7 7 8 6 4 2 3
3 4 4 7 11 19 28 38 44 44 46 49 45 43 43 39 36 36 34 28 22 19 21 24 25 25 25 26 27 23 16 12 11 10 8 6 4 4 4 5 4 3 3
1 1 1 3 6 11 17 24 30 30 32 34 32 29 27 23 24 28 28 23 15 10 9 11 15 17 18 21 24 22 16 12 10 7 5 4 3 2 2 2 2 3 3
0 0 1 1 3 6 11 19 25 27 29 30 29 25 18 14 16 19 21 18 12 6 4 4 7 10 12 15 19 19 17 13 10 8 5 3 3 3 1 0 1 3 4
0 0 1 2 3 4 8 18 28 31 32 33 29 23 17 12 10 9 10 10 7 5 4 4 5 5 6 8 11 14 15 13 10 8 5 3 3 3 1 0 1 4 5
1 1 1 3 5 6 7 16 27 30 29 27 24 19 16 11 6 3 3 2 2 3 4 6 8 5 4 4 4 6 8 9 9 7 4 3 5 6 5 3 2 3 4
0 0 1 3 5 4 4 9 15 17 15 14 13 12 10 6 2 1 0 0 0 1 2 5 8 8 6 3 1 1 2 4 5 5 4 5 8 11 12 9 5 4 5
0 0 1 2 2 2 1 2 3 4 5 5 5 4 3 1 0 0 0 0 0 0 1 2 5 8 8 6 4 2 1 1 2 2 3 5 9 15 18 16 9 6 6
0 0 0 1 1 0 0 0 0 1 2 2 1 1 1 0 0 0 0 0 1 1 1 1 3 5 8 11 10 6 1 0 0 1 1 3 7 12 15 15 12 9 7
0 0 0 0 0 0 0 0 0 0 1 1 0 1 1 0 0 0 0 0 0 1 2 2 3 3 5 8 11 9 5 2 1 0 0 1 3 6 8 9 11 13 13
0 0 0 0 0 0 0 0 0 0 0 0 0 0 0 0 0 0 0 0 0 1 2 2 2 2 1 3 6 8 8 6 4 1 0 0 1 1 4 8 10 13 15
0 0 0 0 0 0 0 0 0 0 0 0 0 0 0 0 0 0 0 0 0 1 1 1 1 1 0 0 2 4 7 7 6 3 1 1 0 0 2 7 9 10 10
0 0 0 0 0 0 0 0 0 0 0 0 0 0 0 0 0 0 0 0 0 0 0 0 0 0 0 1 1 1 3 5 6 6 4 3 1 0 1 3 6 7 6
0 0 0 0 0 0 0 0 0 0 0 0 0 0 0 0 0 0 0 0 0 0 0 0 0 0 0 1 1 1 1 2 5 7 6 5 2 1 0 0 2 4 6
0 0 0 0 0 0 0 0 0 0 0 0 0 0 0 0 0 0 0 0 0 0 0 0 0 0 0 0 1 1 0 0 2 5 7 5 2 1 0 0 0 1 4
0 0 0 0 0 0 0 0 0 0 0 0 0 0 0 0 0 0 0 0 0 0 0 0 0 0 0 0 0 1 1 1 1 3 4 3 1 1 0 0 0 0 1
0 0 0 0 0 0 0 0 0 0 0 0 0 0 0 0 0 0 0 0 0 0 0 0 0 0 0 0 0 0 1 2 2 1 1 1 1 0 0 0 0 0 0
0 0 0 0 0 0 0 0 0 0 0 0 0 0 0 0 0 0 0 0 0 0 0 0 0 0 0 0 0 0 1 1 2 1 1 1 1 0 0 0 0 0 0
0 0 0 0 0 0 0 0 0 0 0 0 0 0 0 0 0 0 0 0 0 0 0 0 0 0 0 0 0 0 0 1 2 2 1 2 1 0 0 0 0 0 0
0 0 0 0 0 0 0 0 0 0 0 0 0 0 0 0 0 0 0 0 0 0 0 0 0 0 0 0 0 0 0 0 1 1 1 1 1 0 0 0 0 0 0
0 0 0 0 0 0 0 0 0 0 0 0 0 0 0 0 0 0 0 0 0 0 0 0 0 0 0 0 0 0 0 0 0 1 0 0 0 0 0 0 0 0 0
0 0 0 0 0 0 0 0 0 0 0 0 0 0 0 0 0 0 0 0 0 0 0 0 0 0 0 0 0 0 0 0 1 1 1 0 0 0 0 0 0 0 0
0 0 0 0 0 0 0 0 0 0 0 0 0 0 0 0 0 0 0 0 0 0 0 0 0 0 0 0 0 0 0 0 1 1 1 0 0 0 0 0 0 0 0
0 0 0 0 0 0 0 0 0 0 0 0 0 0 0 0 0 0 0 0 0 0 0 0 0 0 0 0 0 0 0 0 0 0 0 0 0 0 0 0 0 0 0
0 0 0 0 0 0 0 0 0 0 0 0 0 0 0 0 0 0 0 0 0 0 0 0 0 0 0 0 0 0 0 0 0 0 0 0 0 0 0 0 0 0 0
0 0 0 0 0 0 0 0 0 0 0 0 0 0 0 0 0 0 0 0 0 0 0 0 0 0 0 0 0 0 0 0 0 0 0 0 0 0 0 0 0 0 0

GEFSMW_con_probscp_060.txt.gz
Probability
1 2 3 5 6 5 5 5 4 3 3 5 5 4 3 4 4 2 2 2 3 1 1 0 0 0 0 0 0 0 1 1 1 0 0 0 2 5 8 7 7 7 9
0 1 1 2 3 3 2 3 3 2 2 3 3 2 1 1 1 1 1 1 1 1 1 0 0 0 0 0 0 0 0 0 0 0 0 0 1 3 5 6 5 6 6
0 0 0 0 1 1 1 1 1 1 1 1 1 0 0 0 0 0 0 0 0 0 0 0 0 0 0 0 0 0 0 0 0 0 0 1 0 0 1 2 2 2 2
0 0 0 0 1 2 2 1 0 0 0 0 0 0 0 0 0 0 0 0 0 0 0 0 0 0 0 0 0 0 0 0 0 0 0 0 0 0 0 0 0 0 0
0 0 0 0 1 2 3 1 0 0 0 0 0 0 0 0 0 0 0 0 0 0 0 0 0 0 0 0 0 0 0 0 0 0 0 0 0 0 0 0 0 0 0
0 0 0 0 1 2 2 1 0 0 0 0 0 0 0 0 0 0 0 0 0 0 0 0 0 0 0 0 0 0 0 0 0 0 0 0 0 0 0 0 0 0 0
0 0 0 0 0 1 1 0 0 0 0 0 0 0 0 0 0 0 0 0 0 0 0 0 0 0 0 0 0 0 0 0 0 0 0 0 0 0 0 0 0 0 0
0 0 0 0 0 0 0 0 0 0 0 0 0 0 0 0 0 0 0 0 0 0 0 0 0 0 0 0 0 0 0 0 0 0 0 0 0 0 0 0 0 0 0
0 0 0 0 0 0 0 0 0 0 0 0 0 0 0 0 0 0 0 0 0 0 0 0 0 0 0 0 0 0 0 0 0 0 0 0 0 0 0 0 0 0 0
0 0 0 0 0 0 0 0 0 0 0 0 0 0 0 0 0 0 0 0 0 0 0 0 0 0 0 0 0 0 0 0 0 0 0 0 0 0 0 0 0 0 0
0 0 0 0 0 0 0 0 0 0 0 0 0 0 0 0 0 0 0 0 0 0 0 0 0 0 0 0 0 0 0 0 0 0 0 0 0 0 0 0 0 0 0
0 0 0 0 0 0 0 0 0 0 0 0 0 0 0 0 0 0 0 0 0 0 0 0 0 0 0 0 0 0 0 0 0 0 0 0 0 0 0 0 0 0 0
0 0 0 0 0 0 0 0 0 0 0 0 0 0 0 0 0 0 0 0 0 0 0 0 0 0 0 0 0 0 0 0 0 0 0 0 0 0 0 0 0 0 0
0 0 0 0 0 0 0 0 0 0 0 0 0 0 0 0 0 0 0 0 0 0 0 0 0 0 0 0 0 0 0 0 0 0 0 0 0 0 0 0 0 0 0
0 0 0 0 0 0 0 0 0 0 0 0 0 0 0 0 0 0 0 0 0 0 0 0 0 0 0 0 0 0 0 0 0 0 0 0 0 0 0 0 0 0 0
0 0 0 0 0 0 0 0 0 0 0 0 0 0 0 0 0 0 0 0 0 0 0 0 0 0 0 0 0 0 0 0 0 0 0 0 0 0 0 0 0 0 0
0 0 0 0 0 0 0 0 0 0 0 0 0 0 0 0 0 0 0 0 0 0 0 0 0 0 0 0 0 0 0 0 0 0 0 0 0 0 0 0 0 0 0
0 0 0 0 0 0 0 0 0 0 0 0 0 0 0 0 0 0 0 0 0 0 0 0 0 0 0 0 0 0 0 0 0 0 0 0 0 0 0 0 0 0 0
0 0 0 0 0 0 0 0 0 0 0 0 0 0 0 0 0 0 0 0 0 0 0 0 0 0 0 0 0 0 0 0 0 0 0 0 0 0 0 0 0 0 0
0 0 0 0 0 0 0 0 0 0 0 0 0 0 0 0 0 0 0 0 0 0 0 0 0 0 0 0 0 0 0 0 0 0 0 0 0 0 0 0 0 0 0
0 0 0 0 0 0 0 0 0 0 0 0 0 0 0 0 0 0 0 0 0 0 0 0 0 0 0 0 0 0 0 0 0 0 0 0 0 0 0 0 0 0 0
0 0 0 0 0 0 0 0 0 0 0 0 0 0 0 0 0 0 0 0 0 0 0 0 0 0 0 0 0 0 0 0 0 0 0 0 0 0 0 0 0 0 0
0 0 0 0 0 0 0 0 0 0 0 0 0 0 0 0 0 0 0 0 0 0 0 0 0 0 0 0 0 0 0 0 0 0 0 0 0 0 0 0 0 0 0
0 0 0 0 0 0 0 0 0 0 0 0 0 0 0 0 0 0 0 0 0 0 0 0 0 0 0 0 0 0 0 0 0 0 0 0 0 0 0 0 0 0 0
0 0 0 0 0 0 0 0 0 0 0 0 0 0 0 0 0 0 0 0 0 0 0 0 0 0 0 0 0 0 0 0 0 0 0 0 0 0 0 0 0 0 0
0 0 0 0 0 0 0 0 0 0 0 0 0 0 0 0 0 0 0 0 0 0 0 0 0 0 0 0 0 0 0 0 0 0 0 0 0 0 0 0 0 0 0

GEFSMW_con_probscp_066.txt.gz
Probability
0 0 0 0 0 0 0 0 0 0 0 0 0 0 0 0 0 0 0 0 0 0 0 0 0 0 0 0 0 0 1 2 2 2 2 2 2 3 3 2 2 2 4
0 0 0 0 0 0 0 0 0 0 0 0 0 0 0 0 0 0 0 0 0 0 0 0 0 0 0 0 0 0 0 1 1 1 1 1 1 2 2 2 3 4 5
0 0 0 0 0 0 0 0 0 0 0 0 0 0 0 0 0 0 0 0 0 0 0 0 0 0 0 0 0 0 0 0 0 0 0 0 0 0 0 1 2 4 5
0 0 0 0 0 0 0 0 0 0 0 0 0 0 0 0 0 0 0 0 0 0 0 0 0 0 0 0 0 0 0 0 0 0 0 0 0 0 0 0 1 1 2
0 0 0 0 0 0 0 0 0 0 0 0 0 0 0 0 0 0 0 0 0 0 0 0 0 0 0 0 0 0 0 0 0 0 0 0 0 0 0 0 0 0 1
0 0 0 0 0 0 0 0 0 0 0 0 0 0 0 0 0 0 0 0 0 0 0 0 0 0 0 0 0 0 0 0 0 0 0 0 0 0 0 0 0 0 0
0 0 0 0 0 0 0 0 0 0 0 0 0 0 0 0 0 0 0 0 0 0 0 0 0 0 0 0 0 0 0 0 0 0 0 0 0 0 0 0 0 0 0
0 0 0 0 0 0 0 0 0 0 0 0 0 0 0 0 0 0 0 0 0 0 0 0 0 0 0 0 0 0 0 0 0 0 0 0 0 0 0 0 0 0 0
0 0 0 0 0 0 0 0 0 0 0 0 0 0 0 0 0 0 0 0 0 0 0 0 0 0 0 0 0 0 0 0 0 0 0 0 0 0 0 0 0 0 0
0 0 0 0 0 0 0 0 0 0 0 0 0 0 0 0 0 0 0 0 0 0 0 0 0 0 0 0 0 0 0 0 0 0 0 0 0 0 0 0 0 0 0
0 0 0 0 0 0 0 0 0 0 0 0 0 0 0 0 0 0 0 0 0 0 0 0 0 0 0 0 0 0 0 0 0 0 0 0 0 0 0 0 0 0 0
0 0 0 0 0 0 0 0 0 0 0 0 0 0 0 0 0 0 0 0 0 0 0 0 0 0 0 0 0 0 0 0 0 0 0 0 0 0 0 0 0 0 0
0 0 0 0 0 0 0 0 0 0 0 0 0 0 0 0 0 0 0 0 0 0 0 0 0 0 0 0 0 0 0 0 0 0 0 0 0 0 0 0 0 0 0
0 0 0 0 0 0 0 0 0 0 0 0 0 0 0 0 0 0 0 0 0 0 0 0 0 0 0 0 0 0 0 0 0 0 0 0 0 0 0 0 0 0 0
0 0 0 0 0 0 0 0 0 0 0 0 0 0 0 0 0 0 0 0 0 0 0 0 0 0 0 0 0 0 0 0 0 0 0 0 0 0 0 0 0 0 0
0 0 0 0 0 0 0 0 0 0 0 0 0 0 0 0 0 0 0 0 0 0 0 0 0 0 0 0 0 0 0 0 0 0 0 0 0 0 0 0 0 0 0
0 0 0 0 0 0 0 0 0 0 0 0 0 0 0 0 0 0 0 0 0 0 0 0 0 0 0 0 0 0 0 0 0 0 0 0 0 0 0 0 0 0 0
0 0 0 0 0 0 0 0 0 0 0 0 0 0 0 0 0 0 0 0 0 0 0 0 0 0 0 0 0 0 0 0 0 0 0 0 0 0 0 0 0 0 0
0 0 0 0 0 0 0 0 0 0 0 0 0 0 0 0 0 0 0 0 0 0 0 0 0 0 0 0 0 0 0 0 0 0 0 0 0 0 0 0 0 0 0
0 0 0 0 0 0 0 0 0 0 0 0 0 0 0 0 0 0 0 0 0 0 0 0 0 0 0 0 0 0 0 0 0 0 0 0 0 0 0 0 0 0 0
0 0 0 0 0 0 0 0 0 0 0 0 0 0 0 0 0 0 0 0 0 0 0 0 0 0 0 0 0 0 0 0 0 0 0 0 0 0 0 0 0 0 0
0 0 0 0 0 0 0 0 0 0 0 0 0 0 0 0 0 0 0 0 0 0 0 0 0 0 0 0 0 0 0 0 0 0 0 0 0 0 0 0 0 0 0
0 0 0 0 0 0 0 0 0 0 0 0 0 0 0 0 0 0 0 0 0 0 0 0 0 0 0 0 0 0 0 0 0 0 0 0 0 0 0 0 0 0 0
0 0 0 0 0 0 0 0 0 0 0 0 0 0 0 0 0 0 0 0 0 0 0 0 0 0 0 0 0 0 0 0 0 0 0 0 0 0 0 0 0 0 0
0 0 0 0 0 0 0 0 0 0 0 0 0 0 0 0 0 0 0 0 0 0 0 0 0 0 0 0 0 0 0 0 0 0 0 0 0 0 0 0 0 0 0
0 0 0 0 0 0 0 0 0 0 0 0 0 0 0 0 0 0 0 0 0 0 0 0 0 0 0 0 0 0 0 0 0 0 0 0 0 0 0 0 0 0 0

GEFSMW_con_probscp_072.txt.gz
Probability
10 9 7 5 3 2 2 2 2 2 1 0 1 1 1 0 0 1 1 1 0 0 0 0 0 0 0 1 3 4 4 4 4 4 5 6 6 7 8 9 8 8 8
9 9 6 4 2 1 1 1 1 1 0 0 1 2 1 0 0 0 0 0 0 0 0 0 0 0 0 0 1 2 2 2 2 2 3 5 6 6 7 7 7 8 10
5 5 4 1 1 0 0 0 1 1 2 2 2 2 1 0 0 0 0 0 0 0 0 0 0 0 0 0 0 0 0 0 0 1 1 2 3 5 5 5 6 7 9
2 3 1 0 0 0 0 3 6 8 9 9 7 4 3 1 0 0 0 0 0 0 0 0 0 0 0 0 0 0 0 0 0 0 0 0 1 2 2 3 3 4 5
2 2 1 0 0 0 1 5 14 20 20 18 13 9 6 2 1 0 0 0 0 0 0 0 0 0 0 0 0 0 0 0 0 0 0 0 0 0 0 1 2 2 2
2 1 0 0 0 0 0 5 14 21 22 20 15 11 7 4 2 1 0 0 0 0 0 0 0 0 0 0 0 0 0 0 0 0 0 0 0 0 0 0 1 2 2
1 0 0 1 1 0 1 4 9 13 14 13 10 7 5 4 2 1 0 0 0 0 0 0 0 0 0 0 0 0 0 0 0 0 0 0 0 0 0 0 0 1 2
0 0 0 1 1 1 2 4 5 6 6 5 4 3 2 1 1 1 0 0 0 0 0 0 0 0 0 0 0 0 0 0 0 0 0 0 0 0 0 0 0 0 1
0 0 0 1 1 2 3 3 2 2 2 2 2 1 0 0 0 0 0 0 0 0 0 0 0 0 0 0 0 0 0 0 0 0 0 0 0 0 0 0 0 0 0
0 0 0 0 1 3 3 1 1 1 1 1 1 1 0 0 0 0 0 0 0 0 0 0 0 0 0 0 0 0 0 0 0 0 0 0 0 0 0 0 0 0 0
0 0 0 0 1 2 1 1 1 1 0 0 0 0 0 0 0 0 0 0 0 0 0 0 0 0 0 0 0 0 0 0 0 0 0 0 0 0 0 0 0 0 0
0 0 0 0 0 0 0 0 0 0 0 0 0 0 0 0 0 0 0 0 0 0 0 0 0 0 0 0 0 0 0 0 0 0 0 0 0 0 0 0 0 0 0
1 1 1 0 0 0 0 0 0 0 0 0 0 0 0 0 0 0 0 0 0 0 0 0 0 0 0 0 0 0 0 0 0 0 0 0 0 0 0 0 0 0 0
2 2 2 1 0 0 0 0 0 0 0 0 0 0 0 0 0 0 0 0 0 0 0 0 0 0 0 0 0 0 0 0 0 0 0 0 0 0 0 0 0 0 0
1 2 2 1 0 0 0 0 0 0 0 0 0 0 0 0 0 0 0 0 0 0 0 0 0 0 0 0 0 0 0 0 0 0 0 0 0 0 0 0 0 0 0
0 1 1 0 0 0 0 0 0 0 0 0 0 0 0 0 0 0 0 0 0 0 0 0 0 0 0 0 0 0 0 0 0 0 0 0 0 0 0 0 0 0 0
0 0 0 0 0 0 0 0 0 0 0 0 0 0 0 0 0 0 0 0 0 0 0 0 0 0 0 0 0 0 0 0 0 0 0 0 0 0 0 0 0 0 0
0 0 0 0 0 0 0 0 0 0 0 0 0 0 0 0 0 0 0 0 0 0 0 0 0 0 0 0 0 0 0 0 0 0 0 0 0 0 0 0 0 0 0
0 0 0 0 0 0 0 0 0 0 0 0 0 0 0 0 0 0 0 0 0 0 0 0 0 0 0 0 0 0 0 0 0 0 0 0 0 0 0 0 0 0 0
0 0 0 0 0 0 0 0 0 0 0 0 0 0 0 0 0 0 0 0 0 0 0 0 0 0 0 0 0 0 0 0 0 0 0 0 0 0 0 0 0 0 0
0 0 0 0 0 0 0 0 0 0 0 0 0 0 0 0 0 0 0 0 0 0 0 0 0 0 0 0 0 0 0 0 0 0 0 0 0 0 0 0 0 0 0
0 0 0 0 0 0 0 0 0 0 0 0 0 0 0 0 0 0 0 0 0 0 0 0 0 0 0 0 0 0 0 0 0 0 0 0 0 0 0 0 0 0 0
0 0 0 0 0 0 0 0 0 0 0 0 0 0 0 0 0 0 0 0 0 0 0 0 0 0 0 0 0 0 0 0 0 0 0 0 0 0 0 0 0 0 0
0 0 0 0 0 0 0 0 0 0 0 0 0 0 0 0 0 0 0 0 0 0 0 0 0 0 0 0 0 0 0 0 0 0 0 0 0 0 0 0 0 0 0
0 0 0 0 0 0 0 0 1 1 1 0 0 0 0 0 0 0 0 0 0 0 0 0 0 0 0 0 0 0 0 0 0 0 0 0 0 0 0 0 0 0 0
0 0 0 0 0 0 0 1 2 2 2 1 0 0 0 0 0 0 0 0 0 0 0 0 0 0 0 0 0 0 0 0 0 0 0 0 0 0 0 0 0 0 0

GEFSMW_con_probscp_078.txt.gz
Probability
30 28 27 29 32 34 31 26 18 8 3 3 5 7 7 5 6 10 11 8 5 3 2 2 2 2 3 4 3 2 2 3 3 3 3 3 4 6 11 14 14 11 10
26 24 21 20 21 22 20 15 10 5 3 3 4 5 5 4 5 10 11 8 6 5 4 3 2 2 2 2 2 1 1 2 3 3 3 3 4 6 8 10 11 10 11
18 16 14 11 10 8 7 7 7 7 5 5 5 5 5 5 7 11 13 10 7 7 6 4 3 2 2 1 0 0 0 1 1 2 2 3 3 4 5 5 7 10 12
10 10 9 8 6 4 5 11 18 19 16 12 9 8 8 8 10 14 15 12 9 8 6 5 4 3 3 1 0 0 0 0 0 1 1 1 2 3 3 3 5 8 10
6 7 8 8 8 7 9 20 35 39 32 23 17 14 10 9 10 12 12 10 9 7 5 5 5 4 3 1 0 0 0 0 0 0 0 0 1 1 1 1 3 4 5
4 5 7 9 9 10 15 29 49 54 43 31 22 16 11 7 5 4 4 5 5 5 3 5 6 6 3 1 0 0 0 0 0 0 0 0 0 0 0 0 1 1 2
2 3 5 7 8 12 20 37 55 56 44 31 20 14 10 5 3 1 1 2 3 2 2 3 5 5 3 1 0 0 0 0 0 0 0 0 0 0 0 0 0 0 1
1 2 3 4 6 10 22 40 52 47 34 23 15 11 8 4 2 1 1 1 1 1 1 1 1 2 1 0 0 0 0 0 0 0 0 0 0 1 1 1 1 0 0
0 1 3 3 5 11 21 33 38 33 23 15 11 8 6 4 2 1 1 1 0 0 0 0 0 0 0 0 0 0 0 0 0 0 0 0 0 1 2 2 1 0 0
0 1 2 4 6 13 19 22 23 22 16 11 7 6 6 6 4 1 0 0 0 0 0 0 0 0 0 0 0 0 0 0 0 0 0 0 0 0 1 1 1 0 0
0 0 3 6 9 12 14 15 15 13 10 7 5 5 5 5 3 1 0 0 0 0 0 0 0 0 0 0 0 0 0 0 0 0 0 0 0 0 0 0 0 0 0
0 1 5 9 10 8 8 9 8 7 6 4 4 3 3 2 1 1 1 0 0 0 0 0 0 0 0 0 0 0 0 0 0 0 0 0 0 0 0 0 0 0 0
3 4 10 12 10 8 7 5 4 4 3 3 2 1 1 0 0 1 1 0 0 0 0 0 0 0 0 0 0 0 0 0 0 0 0 0 0 0 0 0 0 0 0
9 11 14 15 13 10 8 5 3 3 3 2 1 0 0 0 0 1 1 1 1 0 0 0 0 0 0 0 0 0 0 0 0 0 0 0 0 0 0 0 0 0 0
13 15 16 16 14 12 10 6 2 2 1 1 0 0 0 0 0 0 0 1 1 1 0 0 0 0 0 0 0 0 0 0 0 0 0 0 0 0 0 0 0 0 0
11 12 14 16 16 13 10 6 2 1 0 0 0 0 0 0 0 0 0 1 2 2 2 2 1 0 0 0 0 0 0 0 0 0 0 0 0 0 0 0 0 0 0
6 7 11 15 17 14 11 7 3 1 0 0 0 0 0 0 0 1 2 4 6 7 7 5 3 2 0 0 0 0 0 0 0 0 0 0 0 0 0 0 0 0 0
3 4 7 10 12 11 10 8 4 1 0 0 1 1 1 1 1 2 6 11 14 13 10 7 5 4 2 0 0 0 0 0 0 0 0 0 0 0 0 0 0 0 0
2 3 3 5 8 8 7 7 5 3 2 2 3 3 3 3 3 6 11 19 22 18 11 5 4 6 4 1 0 0 0 0 0 0 0 0 0 0 0 0 0 0 0
6 6 6 10 17 16 13 13 11 8 6 5 6 7 7 8 8 12 20 26 26 19 10 5 4 6 5 2 0 0 0 0 0 0 0 0 0 0 0 0 0 0 0
12 14 19 26 33 32 28 25 21 15 12 10 10 11 12 11 11 19 30 35 30 21 12 8 6 7 6 3 0 0 0 0 0 0 0 0 0 0 0 0 0 0 0
22 26 35 44 48 46 43 39 34 27 22 18 16 17 18 15 15 23 33 38 33 22 13 8 6 7 8 4 1 0 0 0 0 0 0 0 0 0 0 0 0 0 0
34 38 46 55 55 52 51 48 44 38 31 27 26 25 24 23 22 24 25 27 27 18 11 7 5 6 8 7 3 1 0 0 0 0 0 0 0 0 0 0 0 0 0
44 48 54 57 56 56 54 51 47 42 37 34 33 30 26 26 29 28 21 20 21 18 13 9 6 6 6 5 4 2 0 0 0 0 0 0 0 0 0 0 0 0 0
53 56 58 56 55 54 53 51 48 44 39 35 32 25 18 19 26 28 21 17 18 17 14 9 6 4 2 2 1 1 0 0 0 0 0 0 0 0 0 0 0 0 0
56 58 58 55 52 51 50 50 49 47 41 33 26 18 10 11 19 23 18 12 11 10 8 5 3 1 0 0 0 0 0 0 0 0 0 0 0 0 0 0 0 0 0

GEFSMW_con_probscp_084.txt.gz
Probability
4 5 8 10 12 10 5 2 2 1 0 0 0 0 0 0 0 0 0 0 0 0 0 0 0 0 0 0 0 0 0 0 0 0 0 0 0 0 0 0 1 0 0
4 5 6 7 9 7 3 1 1 0 0 0 0 0 0 0 0 0 0 0 0 0 0 0 0 0 0 0 0 0 0 0 0 0 0 0 0 0 0 0 1 1 1
2 3 5 5 4 3 1 0 0 0 0 0 0 0 0 0 0 0 0 0 0 0 0 0 0 0 0 0 0 0 0 0 0 0 0 0 0 0 0 0 1 1 2
1 3 5 4 2 1 0 0 0 0 0 0 0 0 0 0 0 0 0 0 0 0 0 0 0 0 0 0 0 0 0 0 0 0 0 0 0 0 0 0 0 1 1
3 3 4 4 2 1 0 0 0 0 0 0 0 0 0 0 0 0 0 0 0 0 0 0 0 0 0 0 0 0 0 0 0 0 0 0 0 0 0 0 0 0 0
2 3 4 3 2 1 0 0 0 0 0 0 0 0 0 0 0 0 0 0 0 0 0 0 0 0 0 0 0 0 0 0 0 0 0 0 0 0 0 0 0 0 0
1 1 2 2 1 0 0 0 0 0 0 0 0 0 0 0 0 0 0 0 0 0 0 0 0 0 0 0 0 0 0 0 0 0 0 0 0 0 0 0 0 0 0
0 0 1 1 0 0 0 0 0 0 0 0 0 0 0 0 0 0 0 0 0 0 0 0 0 0 0 0 0 0 0 0 0 0 0 0 0 0 0 0 0 0 0
0 0 0 0 0 0 0 0 0 0 0 0 0 0 0 0 0 0 0 0 0 0 0 0 0 0 0 0 0 0 0 0 0 0 0 0 0 0 0 0 0 0 0
0 0 0 0 0 0 0 0 0 1 1 1 0 0 0 0 0 0 0 0 0 0 0 0 0 0 0 0 0 0 0 0 0 0 0 0 0 0 0 0 0 0 0
0 0 0 0 0 0 0 0 0 1 2 2 0 0 0 0 0 0 0 0 0 0 0 0 0 0 0 0 0 0 0 0 0 0 0 0 0 0 0 0 0 0 0
0 0 0 0 0 1 0 0 0 1 1 1 0 0 0 0 0 0 0 0 0 0 0 0 0 0 0 0 0 0 0 0 0 0 0 0 0 0 0 0 0 0 0
0 0 0 0 0 0 0 0 0 0 0 0 0 0 0 0 0 0 0 0 0 0 0 0 0 0 0 0 0 0 0 0 0 0 0 0 0 0 0 0 0 0 0
0 0 1 0 0 0 0 0 0 0 0 0 0 0 0 0 0 0 0 0 0 0 0 0 0 0 0 0 0 0 0 0 0 0 0 0 0 0 0 0 0 0 0
0 0 0 0 0 0 0 0 1 1 1 1 0 0 0 0 0 0 0 0 0 0 0 0 0 0 0 0 0 0 0 0 0 0 0 0 0 0 0 0 0 0 0
0 0 0 0 0 0 0 0 1 2 2 1 0 0 0 0 0 0 0 0 0 0 0 0 0 0 0 0 0 0 0 0 0 0 0 0 0 0 0 0 0 0 0
0 0 0 0 0 0 0 0 1 1 1 0 0 0 0 0 0 0 0 0 0 0 0 0 0 0 0 0 0 0 0 0 0 0 0 0 0 0 0 0 0 0 0
0 0 0 0 0 0 0 0 0 0 0 0 0 0 0 0 0 0 0 0 0 0 0 0 0 0 0 0 0 0 0 0 0 0 0 0 0 0 0 0 0 0 0
0 0 0 0 0 0 0 0 0 0 0 0 0 0 0 0 0 0 0 0 0 0 0 0 0 0 0 0 0 0 0 0 0 0 0 0 0 0 0 0 0 0 0
0 0 0 0 0 0 0 0 0 0 0 0 0 0 0 0 0 0 0 0 0 0 0 0 0 0 0 0 0 0 0 0 0 0 0 0 0 0 0 0 0 0 0
0 0 0 0 0 0 0 0 0 0 0 0 0 0 0 0 0 0 0 0 0 0 0 0 0 0 0 0 0 0 0 0 0 0 0 0 0 0 0 0 0 0 0
0 0 0 0 0 0 0 0 0 0 0 0 0 0 0 0 0 0 0 0 0 0 0 0 0 0 0 0 0 0 0 0 0 0 0 0 0 0 0 0 0 0 0
0 0 0 0 0 0 0 0 0 0 0 0 0 0 0 0 0 0 0 0 0 0 0 0 0 0 0 0 0 0 0 0 0 0 0 0 0 0 0 0 0 0 0
0 0 0 0 0 0 0 0 0 0 0 0 0 0 0 0 0 0 0 0 0 0 0 0 0 0 0 0 0 0 0 0 0 0 0 0 0 0 0 0 0 0 0
0 0 0 0 0 0 0 0 0 0 0 0 0 0 0 0 0 0 0 0 0 0 0 0 0 0 0 0 0 0 0 0 0 0 0 0 0 0 0 0 0 0 0
0 0 0 0 0 0 0 0 0 0 0 0 0 0 0 0 0 0 0 0 0 0 0 0 0 0 0 0 0 0 0 0 0 0 0 0 0 0 0 0 0 0 0

GEFSMW_con_probscp_090.txt.gz
Probability
5 5 5 7 9 9 6 3 1 0 0 0 0 0 0 0 0 0 0 0 0 0 0 0 0 0 0 0 0 0 0 0 0 0 0 0 0 0 0 0 0 0 0
4 4 4 6 7 7 4 2 0 0 0 0 0 0 0 0 0 0 0 0 0 0 0 0 0 0 0 0 0 0 0 0 0 0 0 0 0 0 0 0 0 0 0
1 2 3 4 4 4 2 0 0 0 0 0 0 0 0 0 0 0 0 0 0 0 0 0 0 0 0 0 0 0 0 0 0 0 0 0 0 0 0 0 0 0 0
1 2 3 3 3 3 2 1 0 0 0 0 0 0 0 0 0 0 0 0 0 0 0 0 0 0 0 0 0 0 0 0 0 0 0 0 0 0 0 0 0 0 0
2 2 3 3 3 3 2 1 0 0 0 0 0 0 0 0 0 0 0 0 0 0 0 0 0 0 0 0 0 0 0 0 0 0 0 0 0 0 0 0 0 0 0
2 1 1 3 3 2 2 1 0 0 0 0 0 0 0 0 0 0 0 0 0 0 0 0 0 0 0 0 0 0 0 0 0 0 0 0 0 0 0 0 0 0 0
2 1 1 2 3 2 2 2 1 0 0 0 0 0 0 0 0 0 0 0 0 0 0 0 0 0 0 0 0 0 0 0 0 0 0 0 0 0 0 0 0 0 0
2 1 1 2 3 3 2 2 2 1 0 0 0 0 0 0 0 0 0 0 0 0 0 0 0 0 0 0 0 0 0 0 0 0 0 0 0 0 0 0 0 0 0
1 1 0 1 2 2 2 2 2 1 0 0 0 0 0 0 0 0 0 0 0 0 0 0 0 0 0 0 0 0 0 0 0 0 0 0 0 0 0 0 0 0 0
0 0 0 0 1 1 2 2 2 1 0 0 0 0 0 0 0 0 0 0 0 0 0 0 0 0 0 0 0 0 0 0 0 0 0 0 0 0 0 0 0 0 0
0 0 0 0 0 1 2 2 1 0 0 0 0 0 0 0 0 0 0 0 0 0 0 0 0 0 0 0 0 0 0 0 0 0 0 0 0 0 0 0 0 0 0
0 0 0 1 1 1 2 1 0 0 0 0 0 0 0 0 0 0 0 0 0 0 0 0 0 0 0 0 0 0 0 0 0 0 0 0 0 0 0 0 0 0 0
0 0 1 2 2 3 2 1 1 0 0 0 0 0 0 0 0 0 0 0 0 0 0 0 0 0 0 0 0 0 0 0 0 0 0 0 0 0 0 0 0 0 0
0 0 1 2 3 3 3 3 2 1 0 0 0 1 1 0 0 0 0 0 0 0 0 0 0 0 0 0 0 0 0 0 0 0 0 0 0 0 0 0 0 0 0
0 0 0 1 1 2 3 4 3 2 2 2 2 2 1 0 0 0 0 0 0 0 0 0 0 0 0 0 0 0 0 0 0 0 0 0 0 0 0 0 0 0 0
0 0 0 0 0 2 3 3 3 4 4 3 3 2 1 0 0 0 0 0 0 0 0 0 0 0 0 0 0 0 0 0 0 0 0 0 0 0 0 0 0 0 0
0 0 0 0 0 1 2 2 2 3 4 3 3 1 0 0 0 0 0 0 0 0 0 0 0 0 0 0 0 0 0 0 0 0 0 0 0 0 0 0 0 0 0
0 0 0 0 0 1 1 0 1 1 2 2 2 1 0 0 0 0 0 0 0 0 0 0 0 0 0 0 0 0 0 0 0 0 0 0 0 0 0 0 0 0 0
0 0 0 0 0 0 0 0 0 0 1 1 1 0 0 0 0 0 0 0 0 0 0 0 0 0 0 0 0 0 0 0 0 0 0 0 0 0 0 0 0 0 0
0 0 0 0 0 0 0 0 0 0 0 0 0 0 0 0 0 0 0 0 0 0 0 0 0 0 0 0 0 0 0 0 0 0 0 0 0 0 0 0 0 0 0
0 0 0 0 0 0 0 0 0 0 0 0 0 0 0 0 0 0 0 0 0 0 0 0 0 0 0 0 0 0 0 0 0 0 0 0 0 0 0 0 0 0 0
0 0 0 0 0 0 0 0 0 0 0 0 0 0 0 0 0 0 0 0 0 0 0 0 0 0 0 0 0 0 0 0 0 0 0 0 0 0 0 0 0 0 0
0 0 0 0 0 0 0 0 0 0 0 0 0 0 0 0 0 0 0 0 0 0 0 0 0 0 0 0 0 0 0 0 0 0 0 0 0 0 0 0 0 0 0
0 0 0 0 0 0 0 0 0 0 0 0 0 0 0 0 0 0 0 0 0 0 0 0 0 0 0 0 0 0 0 0 0 0 0 0 0 0 0 0 0 0 0
0 0 0 0 0 0 0 0 0 0 0 0 0 0 0 0 0 0 0 0 0 0 0 0 0 0 0 0 0 0 0 0 0 0 0 0 0 0 0 0 0 0 0
0 0 0 0 0 0 0 0 0 0 0 0 0 0 0 0 0 0 0 0 0 0 0 0 0 0 0 0 0 0 0 0 0 0 0 0 0 0 0 0 0 0 0

GEFSMW_con_probscp_096.txt.gz
Probability
13 13 11 10 11 13 13 14 15 14 9 5 4 2 1 0 0 0 0 0 0 0 0 0 0 0 0 0 0 0 0 0 0 0 0 0 0 0 0 0 0 0 0
9 9 9 9 11 13 14 16 15 13 9 6 4 3 2 1 0 0 0 0 0 0 0 0 0 0 0 0 0 0 0 0 0 0 0 0 0 0 0 0 0 0 1
5 5 6 8 10 12 14 15 14 11 8 5 3 3 2 1 1 1 1 0 0 0 0 0 0 0 0 0 0 0 0 0 0 0 0 0 0 0 0 0 0 0 1
3 4 5 5 7 9 11 12 11 9 7 5 3 1 1 1 2 2 1 0 0 0 0 0 0 0 0 0 0 0 0 0 0 0 0 0 0 0 0 0 0 0 1
1 2 4 4 4 6 9 11 10 9 8 7 5 2 1 1 2 2 1 0 0 0 0 0 0 0 0 0 0 0 0 0 0 0 0 0 0 0 0 0 0 0 0
0 1 3 4 4 6 8 10 10 10 9 8 6 3 1 1 1 1 0 0 0 0 0 0 0 0 0 0 0 0 0 0 0 0 0 0 0 0 0 0 0 0 0
1 0 2 4 5 5 5 7 10 10 8 6 5 3 2 1 0 0 0 0 0 0 1 1 1 0 0 0 0 0 0 0 0 0 0 0 0 0 0 0 0 0 0
2 1 2 4 5 4 3 6 10 10 7 4 3 3 2 1 0 0 0 0 1 1 2 2 2 1 0 0 0 0 0 0 0 0 0 0 0 0 0 0 0 0 0
2 1 2 4 5 6 6 8 10 8 4 2 3 3 3 1 1 0 1 1 2 3 3 3 3 2 0 0 0 0 0 0 0 0 0 0 0 0 0 0 0 0 0
1 1 1 2 4 6 7 7 7 5 2 1 2 3 3 3 2 2 2 3 3 3 3 3 3 1 0 0 0 0 0 0 0 0 0 0 0 0 0 0 0 0 0
0 0 0 0 2 4 5 5 5 4 2 3 6 8 9 7 5 4 4 5 5 4 3 3 2 1 0 0 0 0 0 0 0 0 0 0 0 0 0 0 0 0 0
0 0 0 0 1 2 3 4 5 6 6 9 14 19 20 17 11 8 7 8 7 6 4 4 3 1 0 0 0 0 0 0 0 0 0 0 0 0 0 0 0 0 0
0 1 1 2 4 7 8 9 10 11 11 15 23 30 34 29 20 14 12 11 11 9 7 5 3 1 0 0 0 0 0 0 0 0 0 0 0 0 0 0 0 0 0
1 2 4 7 13 18 19 20 21 21 21 25 32 39 43 37 28 21 17 15 14 12 9 6 4 2 1 0 0 0 0 0 0 0 0 0 0 0 0 0 0 0 0
2 4 8 14 21 26 29 31 33 34 35 39 42 45 46 41 32 24 20 17 16 13 10 7 4 2 1 0 0 0 0 0 0 0 0 0 0 0 0 0 0 0 0
7 9 13 19 25 30 33 36 40 44 48 50 48 48 47 40 31 24 19 18 16 14 12 8 4 1 0 0 0 0 0 0 1 2 3 1 0 0 0 0 0 0 0
13 14 16 20 23 27 32 37 41 48 54 53 50 50 47 39 30 22 18 17 16 15 12 9 6 3 1 0 0 0 0 0 2 5 6 5 2 1 1 1 0 0 0
16 15 16 18 20 23 28 34 41 48 52 50 48 47 43 36 28 22 17 17 17 16 13 10 9 6 3 0 0 0 0 0 2 5 7 7 6 3 2 1 1 1 0
13 14 15 17 20 23 27 34 43 49 48 44 43 41 37 31 26 23 20 19 19 18 14 11 10 10 6 2 0 0 0 0 2 3 4 6 5 2 1 1 3 3 2
7 9 12 16 21 25 30 37 45 47 42 36 33 33 31 27 25 27 27 24 22 18 13 11 10 11 8 2 0 0 0 0 1 2 1 2 2 1 0 1 3 4 4
3 5 9 14 18 22 27 33 36 34 29 23 20 20 20 18 19 26 29 27 23 18 14 13 14 15 10 3 0 0 0 0 0 0 0 0 0 0 0 0 2 2 2
4 5 7 9 10 12 16 19 18 15 12 10 9 8 7 6 9 17 22 22 20 15 13 14 15 15 11 4 1 0 0 0 0 0 0 0 0 0 0 0 0 0 0
4 5 5 5 4 4 6 8 7 5 4 4 3 2 1 0 3 8 12 14 14 10 9 9 9 9 9 7 3 1 0 0 0 0 0 0 0 0 0 0 0 0 0
2 2 2 2 2 2 3 4 5 3 2 2 1 0 1 1 2 4 6 7 7 7 7 8 8 9 10 8 5 4 3 2 1 1 1 2 2 2 2 1 2 3 4
0 0 0 1 1 1 1 2 2 1 1 1 0 0 1 1 1 2 3 3 3 5 6 7 8 10 10 6 4 4 4 3 2 2 3 4 3 4 5 5 6 10 13
0 0 0 0 0 0 0 0 0 0 0 0 0 0 1 1 1 1 1 1 1 2 3 4 5 6 6 3 1 2 3 3 2 2 3 4 3 3 6 8 10 16 21

GEFSMW_con_probscp_102.txt.gz
Probability
43 41 40 40 40 41 41 42 45 45 39 31 23 19 15 12 9 4 1 0 0 0 0 0 0 0 0 0 0 0 0 0 0 0 0 0 0 0 0 0 0 0 0
43 42 39 39 38 38 37 38 41 40 33 25 19 15 12 10 7 3 1 0 0 0 0 0 0 0 0 0 0 0 0 0 0 0 0 0 0 0 0 0 0 0 0
38 38 36 34 33 33 31 31 34 32 27 21 15 12 9 6 4 2 0 0 0 0 0 0 0 0 0 0 0 0 0 0 0 0 0 0 0 0 0 0 0 0 0
29 31 30 28 28 28 27 27 30 29 25 20 15 10 5 3 2 1 1 0 0 0 0 0 0 0 0 0 0 0 0 0 0 0 0 0 0 0 0 0 0 0 0
22 23 23 23 23 24 25 27 30 30 26 21 16 10 4 2 2 2 3 2 0 0 0 0 1 1 1 1 1 1 0 0 0 0 0 0 0 0 0 0 0 0 0
18 18 18 18 18 19 23 27 30 29 25 21 16 10 4 3 4 4 4 2 0 0 0 1 2 3 2 2 2 2 1 0 0 0 0 0 0 0 0 0 0 0 0
14 16 17 15 16 18 22 26 27 24 20 18 14 9 5 3 3 3 2 1 0 1 2 3 4 4 3 3 3 3 2 1 0 0 0 0 0 0 0 0 0 0 0
10 13 15 15 17 20 24 27 27 22 17 15 13 11 7 4 2 1 1 0 0 2 5 5 5 4 4 4 4 3 3 2 1 0 0 0 0 0 0 0 0 0 0
6 9 12 15 17 22 27 30 28 23 19 16 15 14 11 7 3 2 1 0 1 4 7 8 7 6 5 5 5 4 3 2 2 1 0 0 0 0 0 0 0 0 0
3 5 10 15 18 24 29 31 28 25 22 20 16 14 13 11 7 4 3 3 5 9 12 12 10 8 8 7 6 4 3 3 3 2 1 0 0 0 0 0 0 0 0
1 4 9 15 19 24 30 32 29 26 23 21 18 16 17 18 15 12 11 11 13 17 18 15 13 11 11 10 7 4 3 3 2 2 1 0 0 0 0 0 0 0 0
2 4 11 17 21 25 30 32 30 27 24 24 24 24 28 30 29 26 25 26 26 25 23 20 17 14 13 12 10 6 4 2 2 1 1 1 0 0 0 0 0 0 0
7 8 13 20 25 30 34 36 34 31 28 30 35 38 41 44 45 44 43 42 38 32 27 24 21 17 15 14 13 11 7 5 3 3 3 3 2 2 2 2 2 1 1
14 16 20 27 33 38 42 43 42 38 36 38 44 50 53 54 56 57 56 53 45 35 28 26 23 20 18 17 17 16 12 9 7 6 6 5 5 5 5 5 5 4 4
23 26 30 37 43 47 49 50 50 48 46 48 52 58 61 61 62 64 63 59 50 36 29 27 25 21 17 14 16 16 14 12 11 9 8 8 7 6 5 5 5 5 5
34 39 45 50 55 57 57 59 59 58 59 61 64 67 68 67 67 67 66 64 56 43 34 30 27 22 15 9 8 12 14 15 14 13 12 10 7 5 3 3 2 2 4
44 51 58 63 66 66 66 66 66 66 68 71 74 75 75 73 71 69 70 71 66 55 43 36 31 26 17 6 2 5 11 15 16 17 17 14 8 5 6 6 4 3 2
50 56 63 68 71 70 70 69 68 69 72 74 76 79 78 76 74 74 76 79 76 66 55 47 41 35 23 7 0 2 6 10 13 15 16 15 10 7 8 8 8 7 6
52 56 61 65 69 69 70 69 66 66 68 70 73 74 74 75 76 77 80 81 79 72 63 56 52 47 33 13 1 0 2 5 8 10 10 9 7 5 4 5 8 10 10
45 49 53 59 64 67 67 65 60 59 60 62 65 67 67 68 70 72 73 73 72 71 65 59 57 55 45 22 4 0 1 3 5 6 6 4 2 1 0 2 6 8 7
30 34 40 47 53 56 57 54 50 49 52 55 57 58 58 56 57 59 60 59 61 62 59 55 54 55 48 27 6 0 0 2 3 3 4 3 1 0 0 1 3 3 2
17 20 25 31 35 38 40 38 36 37 41 45 48 48 48 45 45 48 49 50 52 51 48 46 45 47 42 25 7 0 0 0 1 1 2 2 1 0 0 0 1 1 0
11 12 14 16 19 22 23 23 22 24 26 30 32 34 35 34 34 37 38 38 39 37 35 34 33 33 32 21 8 1 0 0 0 1 1 1 0 0 0 0 0 0 0
7 8 8 9 10 12 12 12 12 13 14 16 16 18 20 20 21 21 21 21 21 21 20 20 21 21 21 17 8 3 2 1 1 1 1 1 1 1 0 0 0 0 1
4 4 5 5 5 5 6 6 7 8 9 8 8 8 8 8 8 9 8 7 7 7 8 9 9 11 11 7 4 3 3 2 1 1 2 4 4 3 1 1 1 3 4
2 2 2 2 1 1 2 3 4 6 7 7 6 6 5 5 5 4 4 3 2 2 2 3 3 3 3 1 0 1 2 1 1 1 3 6 6 5 3 3 4 6 8

GEFSMW_con_probscp_108.txt.gz
Probability
19 21 25 31 34 33 30 28 27 20 12 11 12 8 3 0 0 0 0 0 0 0 0 0 0 0 0 0 0 0 0 0 0 0 0 0 0 0 0 0 0 0 0
19 20 23 28 30 29 27 25 23 18 11 10 11 8 4 1 1 1 0 0 0 0 0 0 0 0 0 0 0 0 0 0 0 0 0 0 0 0 0 0 0 0 0
16 17 20 23 24 23 21 19 17 14 11 9 9 8 5 3 2 1 0 0 0 0 0 0 0 0 0 0 0 0 0 0 0 0 0 0 0 0 0 0 0 0 0
12 14 18 20 19 18 18 16 14 11 9 7 7 7 5 2 1 1 0 0 0 0 0 0 0 0 0 0 0 0 0 0 0 0 0 0 0 0 0 0 0 0 0
11 12 14 16 15 15 16 16 13 10 7 5 4 3 2 0 0 0 0 0 0 0 0 0 0 0 0 0 0 0 0 0 0 0 0 0 0 0 0 0 0 0 0
9 9 10 11 11 12 14 14 11 8 7 6 3 1 0 0 0 0 0 0 0 0 0 0 0 0 0 0 0 0 0 0 0 0 0 0 0 0 0 0 0 0 0
7 7 7 8 9 11 11 9 7 6 7 7 4 1 0 0 0 0 0 0 0 0 0 0 0 0 0 0 0 0 0 0 0 0 0 0 0 0 0 0 0 0 0
4 5 6 8 10 10 8 6 4 5 5 6 5 2 1 0 0 0 0 0 0 0 0 0 0 0 0 0 0 0 0 0 0 0 0 0 0 0 0 0 0 0 0
2 4 6 7 8 9 8 6 5 4 4 4 4 3 1 0 0 0 0 0 0 0 0 0 0 0 0 1 1 1 0 0 0 0 0 0 0 0 0 0 0 0 0
1 3 5 5 6 7 7 7 5 4 4 4 3 3 1 0 0 0 0 0 0 0 0 0 0 0 1 2 2 2 1 0 0 0 0 0 0 0 0 0 0 0 0
1 2 3 4 5 7 8 7 7 6 5 5 4 4 2 1 0 0 0 0 0 0 0 0 0 0 1 2 3 3 2 1 0 0 0 0 0 0 0 0 0 0 0
0 1 2 3 5 7 9 9 10 11 9 7 6 5 4 2 1 1 1 1 1 0 0 0 0 0 1 3 3 3 3 2 1 0 0 0 0 0 0 0 0 0 0
1 2 3 5 6 9 11 12 13 14 12 9 7 6 6 5 4 3 3 2 2 1 1 1 1 1 2 3 3 3 3 3 2 1 0 0 0 0 0 0 0 0 0
3 3 4 6 8 10 11 11 11 12 12 11 9 7 7 6 6 5 5 4 3 3 2 2 3 3 4 4 3 3 3 3 2 1 0 0 0 0 0 0 0 0 0
3 2 3 5 7 8 8 9 9 10 11 11 10 8 8 7 8 7 8 8 6 5 5 4 4 5 5 4 3 3 3 2 1 0 0 0 0 0 0 0 0 0 0
2 2 3 4 6 6 6 8 9 9 10 10 10 9 9 10 11 11 13 13 11 10 7 5 5 5 4 2 1 1 2 1 0 0 0 0 0 0 0 0 0 0 0
3 3 3 4 6 8 9 11 11 10 10 9 10 10 12 13 14 16 18 18 17 15 10 6 5 5 2 0 0 0 0 0 0 0 0 0 0 0 0 0 0 0 0
3 3 2 3 4 6 10 14 14 13 12 11 12 13 14 14 15 19 22 21 19 16 11 7 6 5 2 0 0 0 0 0 0 0 0 0 0 0 0 0 0 0 0
2 1 1 1 2 4 8 13 14 14 14 14 14 15 15 13 14 16 19 18 15 12 9 7 5 4 2 0 0 0 0 0 0 0 0 0 0 0 0 0 0 0 0
1 0 1 1 2 3 6 9 11 11 12 13 13 13 12 11 10 10 11 11 9 6 5 5 3 2 1 0 0 0 0 0 0 0 0 0 0 0 0 0 0 0 0
1 1 1 2 2 2 3 5 5 5 6 7 8 8 7 6 6 6 6 5 4 2 2 3 1 1 1 0 0 0 0 0 0 0 0 0 0 0 0 0 0 0 0
2 1 1 1 1 0 1 2 3 2 2 3 4 4 4 4 4 4 4 3 2 1 1 1 1 0 0 0 0 0 0 0 0 0 0 0 0 0 0 0 0 0 0
2 1 0 0 0 0 0 1 2 2 1 1 2 2 3 4 4 3 2 1 1 0 0 0 0 0 0 0 0 0 0 0 0 0 0 0 0 0 0 0 0 0 0
1 0 0 0 0 0 0 0 1 2 2 1 1 1 1 1 2 1 0 0 0 0 0 0 0 0 0 0 0 0 0 0 0 0 0 0 0 0 0 0 0 0 0
0 0 0 0 0 0 0 0 0 1 1 1 1 0 0 0 0 0 0 0 0 0 0 0 0 0 0 0 0 0 0 0 0 0 0 0 0 0 0 0 0 0 0
0 0 0 0 0 0 0 0 0 0 0 1 1 0 0 0 0 0 0 0 0 0 0 0 0 0 0 0 0 0 0 0 0 0 0 0 0 0 0 0 0 0 0

GEFSMW_con_probscp_114.txt.gz
Probability
9 9 11 13 15 15 14 14 16 14 12 9 5 4 2 0 0 0 0 0 0 0 0 0 0 0 0 0 0 0 0 0 0 0 0 0 0 0 0 0 0 0 0
11 10 11 13 15 15 14 14 15 14 11 8 4 3 2 0 0 0 0 0 0 0 0 0 0 0 0 0 0 0 0 0 0 0 0 0 0 0 0 0 0 0 0
11 10 11 14 16 16 15 15 14 12 10 7 4 2 1 0 0 0 0 0 0 0 0 0 0 0 0 0 0 0 0 0 0 0 0 0 0 0 0 0 0 0 0
10 10 11 14 16 17 16 14 12 10 9 7 4 1 0 0 0 1 1 0 0 0 0 0 0 0 0 0 0 0 0 0 0 0 0 0 0 0 0 0 0 0 0
9 10 11 12 15 16 14 12 10 9 8 6 5 2 0 0 0 1 2 1 0 0 0 0 0 0 0 0 0 0 0 0 0 0 0 0 0 0 0 0 0 0 0
7 8 9 10 12 13 12 10 9 8 7 6 5 2 1 0 0 1 1 1 0 0 0 0 0 0 0 0 0 0 0 0 0 0 0 0 0 0 0 0 0 0 0
3 6 8 8 8 9 10 9 7 6 6 6 5 2 1 0 0 1 1 1 0 0 0 0 0 0 0 0 0 0 0 0 0 0 0 0 0 0 0 0 0 0 0
2 3 5 4 5 7 8 8 7 5 5 5 4 2 1 1 1 1 1 1 1 0 0 0 0 0 0 0 0 0 0 0 0 0 0 0 0 0 0 0 0 0 0
1 1 1 1 3 6 8 8 7 6 5 4 3 3 4 4 3 2 1 0 0 0 0 0 0 0 0 0 0 0 0 0 0 0 0 0 0 0 0 0 0 0 0
1 0 0 0 2 5 6 6 6 6 5 4 3 4 6 6 5 3 1 1 1 0 0 0 0 0 0 0 0 0 0 0 0 0 0 0 0 0 0 0 0 0 0
0 0 0 0 2 4 4 3 3 4 5 5 5 5 6 6 6 5 4 3 2 1 1 0 0 0 0 0 0 0 0 0 0 0 0 0 0 0 0 0 0 0 0
0 0 1 1 3 4 4 3 2 3 5 6 6 6 6 6 6 6 6 5 4 3 2 1 1 1 1 2 1 1 0 0 0 0 0 0 0 0 0 0 0 0 0
1 1 3 3 3 4 4 4 4 3 4 5 5 6 6 6 6 6 6 6 5 4 3 3 2 2 3 3 3 2 1 1 0 0 1 1 0 0 0 0 0 0 0
2 2 4 4 4 3 3 4 3 3 3 4 4 5 6 6 6 6 6 6 6 5 4 3 3 3 3 3 3 2 2 1 0 0 1 1 0 0 0 0 0 0 0
1 1 3 3 3 3 2 2 1 1 2 3 3 4 4 5 6 6 6 6 5 4 4 4 4 3 3 2 1 1 2 1 0 0 1 1 0 0 0 0 0 0 0
0 0 1 1 1 2 1 0 0 0 1 2 3 3 3 4 4 5 5 5 4 4 4 5 5 4 2 1 0 0 0 0 0 0 0 0 0 0 0 0 0 0 0
0 0 0 0 0 0 0 0 0 1 2 3 4 4 4 3 3 2 2 3 3 3 3 4 4 3 1 0 0 0 0 0 0 0 0 0 0 0 0 0 0 0 0
0 0 0 0 0 0 0 1 1 2 4 5 6 6 5 3 2 1 0 1 2 2 1 1 1 2 2 1 0 0 0 0 0 0 0 0 0 0 0 0 0 0 0
0 0 0 0 0 0 0 1 2 4 6 6 6 5 4 2 1 0 0 0 1 1 1 0 0 1 1 1 0 0 0 0 0 0 0 0 0 0 0 0 0 0 0
1 0 0 0 0 0 0 0 1 3 5 5 4 3 2 1 0 0 0 1 2 2 1 1 1 0 0 0 0 0 0 0 0 0 0 0 0 0 0 0 0 0 0
1 0 0 0 0 0 0 0 0 1 2 3 3 2 0 0 1 1 1 1 2 2 1 2 2 1 0 0 0 0 0 0 0 0 0 0 0 0 0 0 0 0 0
1 0 0 0 0 0 0 0 0 0 0 1 2 1 0 0 1 1 0 1 1 1 1 2 2 1 0 0 0 0 0 0 0 0 0 0 0 0 0 0 0 0 0
0 0 0 0 0 0 0 0 0 0 0 0 0 0 0 0 0 0 0 0 0 0 1 2 1 0 0 0 0 0 0 0 0 0 0 0 0 0 0 0 0 0 0
0 0 0 0 0 0 0 0 0 0 0 0 0 0 0 0 0 0 0 0 0 0 1 1 0 0 0 0 0 0 0 0 0 0 0 0 0 0 0 0 0 0 0
0 0 0 0 0 0 0 0 0 0 0 0 0 0 0 0 0 0 0 0 0 0 0 0 0 0 0 0 0 0 0 0 0 0 0 0 0 0 0 0 0 0 0
0 0 0 0 0 0 0 0 0 0 0 0 0 0 0 0 0 0 0 0 0 0 0 0 0 0 0 0 0 0 0 0 0 0 0 0 0 0 0 0 0 0 0

GEFSMW_con_probscp_120.txt.gz
Probability
24 25 24 21 20 20 20 17 17 23 29 32 33 32 27 20 14 8 4 2 1 0 0 0 0 0 0 0 0 0 0 0 0 0 0 0 0 0 0 0 0 0 0
22 22 21 19 19 18 17 16 17 20 23 27 32 32 27 21 15 9 6 3 0 0 0 0 0 0 0 0 0 0 0 0 0 0 0 0 0 0 0 0 0 0 0
17 18 17 15 15 15 15 15 16 18 20 24 28 28 25 22 17 11 8 4 1 0 0 0 0 0 0 0 0 0 0 0 0 0 0 0 0 0 0 0 0 0 0
12 14 14 11 10 12 14 16 17 21 24 25 25 22 20 19 16 13 9 4 1 0 0 0 0 0 0 0 0 0 0 0 0 0 0 0 0 0 0 0 0 0 0
10 12 12 9 8 9 11 15 19 24 28 27 22 17 14 14 15 13 10 6 3 1 0 0 0 0 0 0 0 0 0 0 0 0 0 0 0 0 0 0 0 0 0
8 10 9 8 7 7 8 12 17 22 27 24 17 12 11 11 12 11 9 7 5 2 1 0 0 0 0 0 0 0 0 0 0 0 0 0 0 0 0 0 0 0 0
7 8 8 7 7 7 8 10 12 17 20 18 12 9 8 9 9 7 6 5 5 3 1 1 1 1 0 0 0 0 0 1 1 0 0 0 0 0 0 0 0 0 0
5 7 8 6 6 6 7 7 9 11 12 12 10 8 7 6 5 4 4 4 3 2 2 2 1 1 0 0 1 1 1 2 2 1 1 1 0 0 0 0 0 0 0
5 6 8 7 5 5 4 4 6 7 8 8 9 8 6 5 4 4 4 4 4 3 2 2 2 2 1 1 3 4 4 3 3 3 2 2 1 1 1 0 0 0 0
6 6 7 7 6 4 3 3 5 7 8 8 8 7 5 4 4 4 4 4 6 5 2 1 2 3 3 3 5 6 5 4 3 3 3 3 3 2 2 1 0 0 0
8 6 6 6 6 5 4 4 4 5 7 8 9 8 5 3 3 4 4 5 7 6 4 2 3 4 4 4 5 6 5 4 3 3 3 3 3 4 4 3 1 1 1
9 8 6 5 4 4 4 4 4 5 6 7 8 8 5 2 1 2 4 7 8 7 5 5 4 4 4 4 4 4 4 3 3 3 4 3 4 5 6 5 4 3 2
10 9 7 5 3 3 4 4 4 4 5 6 7 8 8 6 3 3 7 11 10 7 6 6 5 4 3 3 3 3 3 3 3 4 5 4 5 6 6 6 5 4 3
11 11 10 8 6 5 5 5 3 2 4 5 6 7 9 10 9 10 13 15 14 11 9 7 5 4 3 3 3 3 3 4 4 6 6 6 5 6 6 7 6 6 5
14 15 14 12 10 8 7 5 3 2 3 4 5 7 10 12 13 15 17 18 18 16 14 10 6 5 4 3 3 3 4 6 7 8 8 6 4 4 4 5 6 6 7
19 19 16 13 11 9 8 6 5 4 4 5 6 9 12 14 15 16 16 19 21 21 18 13 9 8 6 4 2 2 4 8 10 12 11 6 2 2 2 2 2 3 5
18 17 14 12 11 10 9 9 9 8 7 6 8 11 14 15 16 15 15 18 22 24 23 18 16 15 10 4 1 1 3 8 13 16 15 9 4 2 2 1 0 0 1
13 12 10 10 11 11 12 12 12 12 10 9 11 14 15 17 18 17 17 19 23 25 25 23 24 22 13 3 0 0 2 6 12 16 17 13 9 5 2 2 2 3 2
10 9 9 10 12 14 15 15 14 13 12 11 13 16 17 18 20 19 20 22 24 25 24 24 26 23 13 3 0 0 2 6 11 14 14 12 9 5 2 2 5 7 7
9 10 11 12 15 19 21 20 17 16 14 13 15 18 19 20 22 23 23 24 24 23 21 22 22 18 10 4 1 0 2 7 11 13 12 7 4 2 0 1 3 6 8
10 11 12 13 15 21 24 23 22 21 19 18 20 21 20 21 23 24 24 22 20 18 17 16 15 11 6 3 1 0 2 5 8 10 9 5 1 0 0 0 1 2 3
10 11 13 14 15 19 21 20 20 20 20 20 21 21 20 20 21 22 21 18 15 12 11 10 10 8 5 2 0 0 1 1 2 4 4 3 1 0 0 0 0 0 0
8 9 10 12 12 13 14 13 13 14 15 15 15 15 15 15 15 14 13 11 9 7 6 6 6 6 6 3 1 0 0 0 0 0 1 1 0 0 0 0 0 0 0
5 5 5 6 6 5 6 7 7 8 9 9 8 8 9 8 7 6 5 5 5 4 3 3 3 4 4 3 1 0 0 0 0 0 0 0 0 0 0 0 0 0 0
2 2 2 2 1 0 1 2 4 5 6 6 6 6 5 3 1 1 1 1 1 1 1 2 1 1 1 1 1 0 0 0 0 0 0 0 0 0 0 1 1 1 1
0 1 1 1 0 0 0 1 3 5 6 6 6 5 4 2 0 0 0 0 0 0 0 1 0 0 0 0 0 0 0 0 0 0 0 0 0 0 1 2 2 2 2

GEFSMW_con_probscp_126.txt.gz
Probability
67 67 66 64 63 61 59 58 55 51 47 42 36 33 30 30 27 26 29 27 17 8 3 2 2 3 2 1 0 0 0 0 0 0 0 0 0 0 0 0 0 0 0
64 66 66 63 62 60 57 54 51 46 43 39 34 32 32 29 26 26 28 26 18 10 4 2 2 3 3 2 0 0 0 0 0 0 0 0 0 0 0 0 0 0 0
57 63 64 60 58 56 50 46 44 38 33 31 28 28 30 27 24 24 25 23 19 14 8 3 2 4 5 3 1 0 0 0 0 0 0 0 0 0 0 0 0 0 0
51 55 58 54 53 49 43 39 37 32 26 23 23 23 24 23 23 24 25 23 21 18 12 6 4 4 5 3 1 0 0 0 0 0 0 0 0 0 0 0 0 0 0
45 49 51 49 47 43 38 35 33 29 24 20 20 22 22 23 24 26 26 25 22 19 13 8 5 4 3 3 2 1 0 0 0 0 0 0 0 0 0 0 0 0 0
36 42 46 45 42 39 34 31 30 29 26 22 21 24 26 26 26 26 24 23 22 19 14 9 6 4 3 4 4 3 2 1 1 1 0 0 0 0 0 0 0 0 0
28 33 38 39 37 34 29 26 27 27 25 23 23 27 30 29 26 23 19 18 18 18 15 11 7 5 4 4 5 5 5 4 4 3 1 1 0 1 2 1 0 0 0
23 26 31 34 32 28 24 22 23 25 23 22 24 28 29 26 24 23 18 15 15 16 15 12 8 6 4 3 4 5 6 5 5 4 3 2 2 2 3 2 1 0 0
20 23 27 29 29 25 22 22 23 23 22 19 20 22 22 20 20 21 19 15 14 15 16 12 8 5 4 3 4 5 5 4 5 4 4 3 3 3 3 3 2 1 1
18 22 24 26 28 26 22 21 22 23 20 18 17 17 18 17 16 16 16 14 13 15 16 13 8 6 6 7 6 5 4 4 4 4 4 3 3 3 3 3 4 3 3
21 24 24 25 28 27 23 21 21 21 19 17 17 18 18 17 15 14 14 13 14 16 17 14 11 9 9 9 8 6 4 3 4 4 3 3 3 3 2 3 5 5 4
27 28 27 26 28 27 23 20 19 20 18 16 18 21 20 19 19 19 18 18 18 17 16 15 14 12 11 10 9 7 5 3 3 3 3 3 3 3 3 3 4 4 4
30 32 33 31 29 28 24 19 17 16 15 15 18 21 21 20 21 21 20 20 19 16 14 14 14 13 11 9 9 8 7 6 5 4 4 5 5 6 5 4 4 3 2
30 34 38 36 32 29 25 21 16 13 12 13 15 17 18 18 18 18 20 20 19 16 15 14 14 12 10 9 9 10 11 11 9 7 7 7 9 9 6 4 4 3 2
30 34 38 38 36 31 27 23 19 14 13 14 14 13 14 15 15 16 19 21 20 17 17 16 15 12 8 6 7 11 13 15 14 12 10 10 9 7 5 3 3 4 4
35 36 37 38 38 34 30 25 21 17 17 17 15 13 12 12 13 14 17 20 21 19 19 20 18 14 7 3 4 8 11 15 18 16 13 10 6 4 2 1 1 2 2
42 41 39 39 38 36 33 28 23 20 20 20 17 15 14 13 14 14 16 20 22 23 24 25 23 17 9 2 1 3 6 11 17 17 14 10 6 4 4 3 2 1 1
46 44 41 38 37 35 32 29 24 22 21 22 21 20 20 19 18 18 21 25 27 28 29 29 26 19 10 3 0 0 3 7 12 15 14 12 9 6 6 7 6 4 2
46 45 41 37 36 35 33 29 26 23 23 23 23 23 25 25 23 25 29 34 35 33 30 28 26 20 10 3 0 0 2 4 7 10 12 12 9 5 4 5 7 7 4
43 44 42 41 40 39 36 33 29 26 26 26 26 27 29 28 27 30 34 36 36 32 27 24 23 19 11 4 0 0 1 2 5 8 8 6 4 2 1 2 4 5 4
38 41 42 41 41 41 39 36 32 31 30 30 30 30 29 26 26 29 31 31 28 24 20 19 18 14 8 3 0 0 0 1 3 5 5 2 0 0 0 0 1 1 1
30 33 36 35 35 36 36 34 32 32 31 29 28 27 24 21 22 24 25 25 22 18 15 13 11 8 4 1 0 0 0 1 1 1 1 1 0 0 0 0 0 0 0
20 22 24 24 25 26 27 27 26 25 23 22 20 18 16 16 17 17 17 17 16 13 10 8 6 4 1 0 0 0 0 0 0 0 0 0 0 0 0 0 0 0 0
11 13 15 15 15 16 17 18 18 16 14 14 12 10 9 9 10 9 7 7 7 6 5 4 3 2 0 0 0 0 0 0 0 0 0 0 0 0 0 0 0 0 0
6 8 9 8 8 9 10 12 12 11 9 9 7 5 4 3 3 2 1 1 1 1 1 1 1 0 0 0 0 0 0 0 0 0 0 0 0 0 0 0 0 0 0
5 6 6 4 4 5 7 9 10 9 7 6 5 4 3 1 0 0 0 0 0 0 0 0 0 0 0 0 0 0 0 0 0 0 0 0 0 0 0 0 0 0 0

GEFSMW_con_probscp_132.txt.gz
Probability
44 48 54 58 56 51 43 36 32 30 24 17 11 8 7 7 7 6 4 2 3 2 1 0 0 0 0 0 0 0 0 0 0 0 0 0 0 0 0 0 0 0 0
47 50 55 58 57 50 41 34 30 26 21 16 11 8 6 7 7 5 3 2 3 2 1 0 0 0 0 0 0 0 0 0 0 0 0 0 0 0 0 0 0 0 0
48 51 54 54 52 45 37 30 25 21 17 14 11 8 5 5 5 4 2 2 2 2 1 0 0 0 0 0 0 0 0 0 0 0 0 0 0 0 0 0 0 0 0
40 44 48 46 42 37 30 24 22 20 16 13 11 8 4 4 3 2 3 2 1 2 2 1 0 0 0 0 0 0 0 0 0 0 0 0 0 0 0 0 0 0 0
30 34 38 37 34 29 23 19 19 20 16 12 10 7 5 3 2 2 3 1 1 2 3 2 0 0 0 0 0 0 0 0 0 0 0 0 0 0 0 0 0 0 0
26 27 28 28 27 23 18 15 16 17 15 11 9 8 5 2 1 1 1 1 1 2 2 1 0 0 0 0 0 0 0 0 0 0 0 0 0 0 0 0 0 0 0
23 23 23 24 24 20 14 12 12 12 12 11 10 8 5 2 1 0 1 1 2 2 1 0 0 0 0 0 1 1 0 0 0 0 0 0 0 0 0 0 0 0 0
18 19 19 21 22 17 12 10 9 10 12 12 11 8 5 2 1 0 1 2 2 1 0 0 0 0 0 1 2 2 1 1 1 0 0 0 0 0 0 0 0 0 0
13 15 17 18 18 14 11 10 10 11 13 14 12 9 5 3 1 0 1 2 2 1 1 1 1 0 0 1 3 3 3 2 2 1 1 0 0 0 0 0 0 0 0
13 15 16 16 14 11 9 10 12 14 14 14 12 9 6 3 1 0 1 1 1 0 1 2 2 2 2 3 3 3 3 3 3 2 1 0 0 0 0 0 0 0 0
15 15 15 14 11 8 7 8 11 13 13 11 10 8 5 2 0 0 0 0 0 0 0 1 2 3 4 5 4 4 3 3 3 2 1 0 0 0 0 0 0 0 0
15 15 13 11 9 6 6 7 9 11 10 8 6 4 2 0 0 0 0 0 0 1 1 1 3 4 4 5 6 5 4 3 2 1 0 0 0 0 0 0 0 0 0
14 13 12 10 8 6 6 6 7 8 7 5 3 1 0 0 1 1 0 1 1 2 2 3 3 3 3 4 4 4 3 2 2 1 0 0 0 0 0 0 0 0 0
11 11 10 9 8 7 6 6 5 5 5 3 1 1 1 1 1 1 1 2 3 3 3 3 3 3 3 3 3 2 2 1 1 1 0 0 0 0 0 0 0 0 0
8 10 9 9 8 7 6 6 5 4 3 2 1 2 1 1 1 1 2 3 3 4 3 3 3 3 3 3 2 1 1 1 1 1 0 0 0 0 0 0 0 0 0
9 9 9 9 8 7 6 6 5 4 4 3 2 2 1 1 2 3 3 3 4 5 4 3 2 2 2 1 1 0 0 0 0 0 0 1 1 0 0 0 0 0 0
12 11 9 8 7 5 4 5 6 5 5 5 3 2 0 0 1 3 4 4 4 5 4 2 1 1 1 0 0 0 0 0 0 0 0 1 1 0 0 0 0 0 0
13 11 9 7 5 3 3 5 7 7 6 4 3 1 0 0 0 1 2 3 4 4 3 1 0 0 0 0 0 0 0 0 0 0 0 1 1 0 0 0 0 0 0
13 11 8 6 4 3 4 7 9 9 7 4 2 2 2 2 2 2 2 2 2 2 1 0 0 0 0 0 0 0 0 0 0 0 0 0 0 0 0 0 0 0 0
13 11 9 7 6 5 7 9 9 8 7 5 4 5 5 6 5 5 3 3 2 1 0 0 0 0 0 0 0 0 0 0 0 0 0 0 0 0 0 0 0 0 0
15 13 10 9 8 7 8 9 8 7 7 7 6 7 8 8 8 6 4 3 2 1 0 0 0 0 0 0 0 0 0 0 0 0 0 0 0 0 0 0 0 0 0
13 11 9 8 8 7 8 9 8 7 7 8 7 6 7 7 7 6 4 3 2 1 0 0 0 0 0 0 0 0 0 0 0 0 0 0 0 0 0 0 0 0 0
7 6 6 6 6 6 6 7 6 5 6 6 5 4 5 5 5 4 3 2 2 1 0 0 0 0 0 0 0 0 0 0 0 0 0 0 0 0 0 0 0 0 0
2 3 3 3 3 2 3 4 3 3 4 4 3 3 3 2 2 1 1 1 1 0 0 0 0 0 0 0 0 0 0 0 0 0 0 0 0 0 0 0 0 0 0
1 1 1 1 1 0 1 2 2 2 4 4 3 3 2 1 0 0 0 0 0 0 0 0 0 0 0 0 0 0 0 0 0 0 0 0 0 0 0 0 0 0 0
0 0 0 0 0 0 0 1 1 1 2 3 3 2 1 0 0 0 0 0 0 0 0 0 0 0 0 0 0 0 0 0 0 0 0 0 0 0 0 0 0 0 0

GEFSMW_con_probscp_138.txt.gz
Probability
7 12 21 24 22 21 20 19 17 13 10 8 6 4 2 1 0 0 0 0 0 0 0 0 0 0 0 0 0 0 0 0 0 0 0 0 0 0 0 0 0 0 0
11 15 22 26 25 22 19 16 14 11 8 6 4 3 3 2 1 0 0 0 0 0 0 0 0 0 0 0 0 0 0 0 0 0 0 0 0 0 0 0 0 0 0
14 17 23 28 29 25 18 13 11 10 7 5 4 3 3 3 3 1 0 0 0 0 0 0 0 0 0 0 0 0 0 0 0 0 0 0 0 0 0 0 0 0 0
15 17 21 26 28 24 17 12 11 10 9 8 7 5 4 3 2 1 0 0 0 0 0 0 0 0 0 0 0 0 0 0 0 0 0 0 0 0 0 0 0 0 0
15 16 18 21 22 19 15 12 10 9 9 10 9 8 5 2 1 0 0 0 0 0 0 0 0 0 0 0 0 0 0 0 0 0 0 0 0 0 0 0 0 0 0
14 15 15 16 16 15 14 12 9 6 8 10 10 8 6 2 0 0 0 0 0 0 0 0 0 0 0 0 0 0 0 0 0 0 0 0 0 0 0 0 0 0 0
11 12 13 13 13 13 11 10 8 6 7 9 9 8 6 3 1 0 0 0 0 0 0 0 0 0 0 0 0 0 0 0 0 0 0 0 0 0 0 0 0 0 0
8 9 10 11 11 10 8 6 7 7 7 8 9 9 8 5 2 1 0 0 0 0 0 0 0 1 0 0 0 0 0 0 0 0 0 0 0 0 0 0 0 0 0
5 6 8 9 9 7 5 4 5 7 7 7 8 9 8 5 3 1 0 0 0 0 0 0 0 0 0 0 0 0 0 0 0 0 0 0 0 0 0 0 0 0 0
4 4 6 7 7 6 4 3 3 4 5 6 7 8 6 4 3 1 0 0 0 0 0 0 0 0 0 0 0 0 0 0 0 0 0 0 1 1 0 0 0 0 0
3 4 5 6 6 6 4 2 2 3 4 5 6 6 4 3 2 1 0 0 0 0 0 0 0 0 0 0 0 0 0 0 0 0 1 1 2 2 1 1 0 0 0
2 3 4 5 6 6 4 2 1 2 4 6 6 5 3 1 1 0 0 0 0 0 0 0 0 0 0 1 1 0 0 0 0 1 2 2 2 2 2 1 0 0 0
2 2 3 4 6 6 4 2 1 2 3 5 6 5 3 1 1 0 0 0 1 1 1 1 1 1 1 2 2 1 0 0 0 1 2 2 1 1 1 1 0 0 0
1 2 2 3 5 5 3 2 2 2 1 2 4 4 3 3 2 1 1 1 2 2 2 2 2 2 3 3 2 1 0 0 0 0 1 1 0 0 0 0 0 0 0
0 1 1 1 3 3 3 3 3 2 1 1 2 3 3 3 2 2 2 2 3 3 3 3 2 2 2 2 1 1 0 0 0 0 0 0 0 0 0 0 0 0 0
0 0 1 1 1 2 4 4 4 3 2 2 2 3 3 2 1 1 1 2 3 3 2 1 1 1 1 1 0 0 0 0 0 0 0 0 0 0 0 0 0 0 0
1 1 2 2 1 2 3 4 4 3 2 2 2 2 2 1 0 0 0 1 1 2 1 0 0 0 0 0 0 0 0 0 0 0 0 0 0 0 0 0 0 0 0
1 1 2 3 2 1 2 2 2 2 2 2 2 1 1 0 0 0 0 0 0 0 0 0 0 0 0 0 0 0 0 0 0 0 0 0 0 0 0 0 0 0 0
1 1 2 2 1 1 1 1 0 1 1 1 1 1 0 0 0 0 0 0 0 0 0 0 0 0 0 0 0 0 0 0 0 0 0 0 0 0 0 0 0 0 0
0 0 1 1 0 0 0 0 0 1 1 1 0 0 0 0 0 1 1 1 1 0 0 0 0 0 0 0 0 0 0 0 0 0 0 0 0 0 0 0 0 0 0
0 0 1 1 0 0 0 0 0 1 1 1 0 0 0 0 1 2 2 2 1 0 0 0 0 0 0 0 0 0 0 0 0 0 0 0 0 0 0 0 0 0 0
0 0 1 1 0 0 0 0 0 0 1 1 1 1 0 1 1 3 3 3 1 0 0 0 0 0 0 0 0 0 0 0 0 0 0 0 0 0 0 0 0 0 0
0 0 0 0 0 0 0 0 0 0 0 1 2 1 0 1 2 2 2 2 1 1 1 0 0 0 0 0 0 0 0 0 0 0 0 0 0 0 0 0 0 0 0
0 0 0 0 0 0 0 0 0 0 0 1 1 0 0 1 1 1 1 1 1 1 1 0 0 0 0 0 0 0 0 0 0 0 0 0 0 0 0 0 0 0 0
0 0 0 0 0 0 0 0 0 0 0 0 0 0 0 0 0 0 0 0 0 1 1 0 0 0 0 0 0 0 0 0 0 0 0 0 0 0 0 0 0 0 0
0 0 0 0 0 0 0 0 0 0 0 0 0 0 0 0 0 0 0 0 0 0 0 0 0 0 0 0 0 0 0 0 0 0 0 0 0 0 0 0 0 0 0

GEFSMW_con_probscp_144.txt.gz
Probability
13 21 27 27 30 35 34 31 27 28 31 29 25 22 19 18 17 13 9 6 3 2 1 1 1 0 0 0 0 0 0 0 0 0 0 0 0 0 0 0 0 0 0
15 24 31 32 34 39 38 33 29 27 29 29 27 24 20 17 15 12 9 7 6 4 2 1 1 0 0 0 0 0 0 0 0 0 0 0 0 0 0 0 0 0 0
14 22 30 34 36 40 39 33 29 27 26 25 24 22 19 16 14 11 10 10 9 7 5 2 2 1 0 0 0 0 0 0 0 0 0 0 0 0 0 0 0 0 0
11 16 25 31 33 33 31 28 27 26 24 21 20 19 16 14 13 12 12 12 10 7 6 5 4 3 2 1 1 1 1 0 0 0 0 0 0 0 0 0 0 0 0
10 13 20 25 26 24 22 21 24 25 24 21 20 19 15 14 14 13 13 11 9 5 4 5 5 4 3 2 2 2 2 2 1 0 0 0 0 0 0 0 0 0 0
15 15 17 19 18 16 15 17 21 24 23 21 20 18 16 14 13 13 11 9 6 4 2 3 4 4 4 4 4 5 5 5 3 2 1 0 0 0 0 0 0 0 0
20 19 18 15 11 10 12 14 19 23 22 21 20 18 16 13 11 11 9 7 5 4 3 3 4 4 4 4 5 6 7 7 6 4 2 1 0 0 1 1 0 0 0
20 19 17 10 6 7 10 13 18 21 21 22 21 19 15 12 10 9 7 6 5 5 5 4 4 4 4 4 5 5 6 6 6 4 2 1 1 2 2 1 1 1 0
16 16 13 8 5 6 9 11 13 17 19 21 22 19 14 11 9 7 7 7 6 6 5 5 5 4 4 4 5 6 6 6 5 3 3 3 3 4 3 2 3 2 1
11 13 12 10 9 9 9 9 10 14 16 19 21 18 13 9 7 7 7 8 9 9 7 6 5 5 5 5 7 8 6 6 5 3 3 4 5 6 5 5 5 5 3
8 11 13 15 15 12 9 9 11 13 14 15 16 16 12 8 7 7 7 9 12 13 11 7 5 6 6 7 8 9 8 8 8 5 3 4 6 6 6 6 6 5 4
9 10 14 17 18 15 11 9 10 11 11 10 10 11 10 8 9 9 8 9 13 15 13 9 7 7 7 9 10 11 11 12 11 8 5 4 4 4 4 5 5 4 3
13 14 17 19 19 17 14 11 8 7 5 5 5 6 8 10 10 10 8 9 12 13 11 9 9 8 8 9 11 12 13 15 14 11 7 5 4 3 2 3 3 3 2
18 19 20 21 21 20 17 13 9 5 2 3 4 4 8 11 11 10 9 9 10 10 9 9 8 7 6 8 9 10 12 13 12 10 7 5 3 3 2 1 1 2 2
19 20 20 19 19 19 16 14 10 6 4 4 4 5 7 10 10 9 8 8 8 8 8 8 6 4 4 4 5 6 7 8 8 7 6 5 3 2 1 1 1 2 2
15 16 15 14 14 14 13 11 10 9 7 4 4 5 7 8 7 6 6 7 7 7 8 7 4 3 2 1 1 2 3 3 4 5 5 4 3 1 0 0 1 1 1
13 13 12 11 11 10 8 7 7 8 7 5 5 6 7 7 6 5 4 5 5 6 7 5 3 2 1 0 0 1 1 1 2 4 5 4 3 2 0 0 0 0 0
13 13 11 10 10 10 8 6 6 6 6 6 7 9 9 7 6 5 4 3 3 5 5 4 4 3 2 1 0 0 0 1 2 3 4 4 4 3 1 0 0 0 1
14 13 11 10 11 12 10 7 6 5 4 6 8 8 8 7 6 5 4 3 3 3 3 3 3 2 2 1 0 0 0 0 1 2 2 2 3 2 0 0 0 0 1
14 13 11 10 12 13 11 7 5 4 3 3 5 5 6 6 6 5 3 3 3 3 2 1 1 0 0 0 0 0 0 0 1 1 1 0 1 0 0 0 0 0 1
12 12 11 10 11 10 7 4 3 2 2 3 3 4 5 6 6 5 4 3 3 3 2 1 1 0 0 0 0 0 1 0 0 0 0 0 0 0 0 0 0 0 0
9 11 11 10 8 6 3 1 1 1 2 2 3 4 6 6 6 5 4 4 4 3 2 2 2 1 1 0 0 0 0 0 0 0 0 0 0 0 0 0 0 0 0
8 10 11 10 8 5 3 2 1 1 2 2 2 4 6 6 5 5 4 5 5 5 4 3 3 2 1 1 0 0 0 0 0 0 0 0 0 0 0 0 0 0 0
7 9 10 10 9 6 4 3 3 4 4 3 3 4 5 5 4 3 4 4 4 4 4 3 3 3 2 1 1 1 1 1 0 0 0 0 0 0 0 0 0 0 0
5 6 8 8 7 6 5 4 5 6 6 5 4 3 4 3 2 2 2 2 1 1 2 2 2 2 2 1 1 1 2 1 0 0 0 0 0 0 0 0 0 0 0
2 3 4 4 4 5 5 4 5 6 6 5 4 2 2 1 1 1 1 0 0 0 0 1 1 1 1 1 1 1 1 1 0 0 0 0 0 0 0 0 0 0 0

GEFSMW_con_probscp_150.txt.gz
Probability
55 61 66 70 75 80 82 79 74 69 63 54 47 42 37 33 30 27 25 23 19 17 12 11 16 14 10 10 10 7 5 3 1 0 0 0 0 0 0 0 0 0 0
61 66 70 72 76 81 82 78 73 70 64 57 50 44 38 34 31 30 28 24 20 17 12 12 16 16 13 12 12 10 6 2 1 0 0 0 0 0 0 0 0 0 0
66 69 71 72 75 78 76 70 68 66 61 57 52 45 38 34 33 34 33 28 23 18 16 16 18 18 16 16 16 13 8 4 2 2 1 0 0 0 0 0 0 0 0
62 64 64 65 68 69 67 63 62 60 57 53 51 46 38 34 35 38 37 33 28 22 21 22 22 20 18 19 19 15 10 7 4 2 2 1 1 0 0 0 0 0 0
51 54 56 55 58 59 58 60 61 58 53 48 46 44 39 34 33 36 37 35 30 25 23 25 26 24 23 22 22 18 13 8 5 2 3 3 2 1 1 0 0 0 0
42 48 51 50 50 51 52 55 57 53 46 42 40 38 36 32 28 28 30 30 27 24 22 24 28 29 26 25 24 21 15 9 6 4 4 4 4 3 3 1 0 0 0
41 46 49 47 44 43 43 46 47 44 38 36 35 34 32 28 24 22 23 24 23 21 22 24 28 29 26 24 24 22 16 13 9 6 5 5 5 5 4 2 1 0 0
42 44 45 42 37 33 33 35 36 35 33 33 34 34 32 26 21 19 19 20 19 19 20 22 24 25 23 21 21 21 19 17 13 7 5 5 5 4 4 4 3 1 0
39 40 40 35 29 26 26 29 32 32 31 31 31 33 31 26 21 19 18 18 18 17 17 20 22 21 20 20 21 21 20 20 16 9 6 5 4 4 6 8 7 3 1
36 37 36 30 25 25 27 30 32 32 29 28 28 30 29 26 21 18 17 17 17 17 17 20 22 20 19 21 21 20 20 20 17 13 9 6 5 5 7 9 8 5 2
39 38 35 30 27 30 32 32 32 31 30 27 27 28 27 24 20 16 15 17 19 19 19 21 24 21 19 19 19 18 20 20 18 15 12 9 7 7 8 8 7 4 2
42 40 37 34 33 34 34 32 29 28 29 29 29 30 27 24 20 17 16 17 19 20 19 20 24 22 18 16 16 16 18 19 15 12 12 11 10 10 10 8 6 4 3
46 45 42 39 38 37 35 32 29 27 28 30 31 30 28 24 21 19 18 17 18 18 17 17 20 20 15 13 12 13 14 14 11 9 9 9 10 11 10 7 5 4 2
50 48 46 44 41 39 37 35 32 29 28 28 28 27 25 23 21 19 17 16 15 14 13 12 14 15 12 9 8 8 8 8 7 6 5 6 6 7 7 5 4 2 1
45 44 45 43 40 37 36 36 34 32 28 24 22 22 22 22 20 17 15 14 13 12 9 8 9 9 8 5 5 5 6 6 5 4 3 2 2 2 2 2 2 1 1
35 37 38 39 37 33 32 32 32 30 25 20 18 19 20 20 17 13 12 12 12 11 9 8 7 5 4 2 2 3 4 6 5 3 2 1 0 0 0 0 0 1 1
36 36 36 35 32 29 29 29 28 25 21 18 17 18 19 18 13 9 8 9 10 11 10 8 6 4 1 0 0 1 2 4 4 4 4 2 0 0 0 0 0 1 1
40 39 36 32 27 26 26 25 24 21 19 17 17 18 17 15 12 8 7 7 8 9 9 8 6 4 1 0 0 0 1 2 3 5 5 3 1 0 0 0 1 2 3
40 38 34 30 26 25 24 21 19 19 18 17 16 14 13 12 12 10 9 8 8 8 7 7 6 3 1 0 0 0 1 2 3 3 3 2 1 0 0 0 2 3 4
37 34 30 28 27 25 22 18 15 15 15 13 11 9 8 9 11 13 12 11 9 8 7 5 4 3 1 0 0 0 2 3 3 2 0 0 0 0 0 0 1 2 3
31 29 27 27 26 24 20 14 10 9 10 10 8 6 5 5 8 12 13 11 9 7 6 5 4 2 1 0 0 0 1 2 2 1 0 0 0 0 0 0 0 1 1
26 25 24 25 25 23 16 11 8 7 8 8 7 6 6 5 6 8 10 9 8 7 6 4 3 2 1 1 0 0 0 1 1 0 0 0 0 0 0 0 0 0 0
22 22 22 22 22 19 14 11 9 7 6 6 6 6 6 5 5 5 6 7 8 7 5 3 2 2 2 1 0 0 0 0 0 0 0 0 0 0 0 0 0 0 0
19 19 19 18 17 14 13 12 10 8 7 6 6 6 6 5 3 3 3 4 5 5 3 2 2 2 2 1 0 0 0 0 0 0 0 0 0 0 0 0 0 0 0
16 17 16 14 12 11 11 10 8 7 7 7 7 7 5 3 2 1 1 1 1 1 1 1 1 1 1 0 0 0 0 0 0 0 0 0 0 0 0 0 0 0 0
15 15 13 11 11 10 9 7 6 6 7 7 7 7 4 2 1 0 0 0 0 0 0 1 0 0 0 0 0 0 0 0 0 0 0 0 0 0 0 0 0 0 0

GEFSMW_con_probscp_156.txt.gz
Probability
44 49 50 47 44 43 42 41 38 32 24 16 9 6 4 1 0 0 0 1 2 3 1 0 0 0 0 0 0 0 0 0 0 0 0 0 0 0 0 0 0 0 0
50 51 50 46 44 45 44 40 37 31 22 14 8 5 4 2 1 0 0 0 2 4 2 0 0 0 0 0 0 0 0 0 0 0 0 0 0 0 0 0 0 0 0
52 51 48 45 43 43 43 37 31 27 20 13 8 5 4 3 1 0 1 1 3 5 4 2 1 0 0 1 0 0 0 0 0 0 0 0 0 0 0 0 0 0 0
46 46 44 41 40 40 39 34 29 25 20 14 8 4 3 3 1 0 2 3 4 6 7 6 4 2 1 1 0 0 0 0 0 0 0 0 0 0 0 0 0 0 0
38 39 38 36 36 36 33 30 27 24 20 15 8 3 1 1 0 0 1 2 4 7 9 8 5 3 1 0 0 0 0 0 0 0 0 0 0 0 0 0 0 0 0
35 35 34 32 30 29 26 23 22 20 17 13 8 3 0 0 0 0 0 1 3 6 9 9 6 3 1 1 0 0 0 0 0 0 0 0 0 0 0 0 0 0 0
32 30 28 26 24 22 19 16 15 14 13 10 7 4 2 2 1 1 0 1 2 5 8 8 7 4 3 2 1 0 0 0 0 0 0 0 0 0 0 0 0 0 0
24 23 21 19 19 18 16 13 11 10 8 7 6 6 6 6 4 3 1 1 2 4 6 6 5 4 4 3 2 0 0 0 0 0 0 0 0 0 0 0 0 0 0
16 16 15 14 15 16 15 13 10 8 6 5 5 6 7 7 6 5 4 3 3 3 4 3 3 3 4 4 4 2 0 0 0 0 0 0 0 0 0 0 0 0 0
15 16 14 13 14 16 16 14 11 9 8 6 4 4 4 4 5 5 5 4 4 4 4 3 2 3 3 4 4 3 1 0 0 0 0 0 0 0 0 0 0 0 0
20 20 17 13 13 15 15 14 12 11 11 7 4 2 2 3 3 4 4 5 5 6 6 5 4 3 3 3 4 3 1 0 0 0 0 0 0 0 0 0 0 0 0
20 19 18 15 12 13 13 13 12 12 11 9 5 3 4 4 3 3 3 3 5 5 6 6 5 4 4 4 3 2 1 0 0 0 0 0 0 0 0 0 0 0 0
13 14 15 15 14 13 13 13 12 12 11 9 7 6 6 5 3 2 2 1 2 3 4 5 6 5 5 5 3 1 0 0 0 0 0 0 0 0 0 0 0 0 0
12 13 13 14 14 14 12 12 12 12 11 9 8 8 8 6 4 3 2 1 1 2 3 4 5 4 4 4 4 2 1 0 0 0 0 0 0 0 0 0 0 0 0
16 15 13 12 12 11 10 10 10 11 12 10 9 8 8 6 4 3 2 2 2 2 3 3 4 3 3 3 3 2 1 0 0 0 0 0 0 0 0 0 0 0 0
16 15 13 10 8 7 6 7 8 10 11 11 9 8 7 6 5 2 1 1 2 2 2 2 2 2 1 1 1 1 1 1 0 0 0 0 0 0 0 0 0 0 0
13 12 11 8 6 5 4 5 7 8 8 8 7 7 7 6 6 3 1 0 0 0 1 1 1 1 0 0 0 0 1 1 0 0 0 0 0 0 0 0 0 0 0
15 12 9 8 6 5 4 3 4 4 4 4 4 5 6 6 6 5 3 1 0 0 0 0 0 0 0 0 0 0 1 1 0 0 0 0 0 0 0 0 0 0 0
17 13 9 7 6 5 3 2 1 1 2 2 3 4 5 6 6 6 4 3 1 0 0 0 0 0 0 0 0 0 0 0 0 0 0 0 0 0 0 0 0 0 0
14 12 9 6 4 3 1 1 0 0 1 1 2 3 4 5 6 6 5 4 2 0 0 0 0 0 0 0 0 0 0 0 0 0 0 0 0 0 0 0 0 0 0
11 11 9 5 2 1 0 0 0 0 0 0 1 1 2 4 5 5 4 4 2 1 0 0 0 0 0 0 0 0 0 0 0 0 0 0 0 0 0 0 0 0 0
9 8 6 3 1 0 0 0 0 0 0 0 0 0 1 1 3 3 3 3 3 2 1 0 0 0 0 0 0 0 0 0 0 0 0 0 0 0 0 0 0 0 0
4 4 3 1 0 0 0 0 0 0 0 0 0 0 0 0 1 1 2 3 3 3 2 1 0 0 0 0 0 0 0 0 0 0 0 0 0 0 0 0 0 0 0
2 1 1 1 0 0 0 0 0 0 0 0 0 0 0 0 0 0 1 1 2 2 2 1 0 0 0 0 0 0 0 0 0 0 0 0 0 0 0 0 0 0 0
2 1 1 1 0 0 0 0 0 1 1 0 0 0 0 0 0 0 0 0 1 1 1 1 0 0 0 0 0 0 0 0 0 0 0 0 0 0 0 0 0 0 0
1 0 0 0 0 0 0 0 1 2 2 1 0 0 0 0 0 0 0 0 0 0 0 0 0 0 0 0 0 0 0 0 0 0 0 0 0 0 0 0 0 0 0

GEFSMW_con_probscp_162.txt.gz
Probability
12 14 17 19 18 14 10 9 7 4 2 1 0 0 0 0 0 0 0 0 0 0 0 0 0 0 0 0 0 0 0 0 0 0 0 0 0 0 0 0 0 0 0
14 16 19 21 21 17 13 12 8 5 2 0 0 0 0 0 0 0 0 0 0 0 0 0 0 0 0 0 0 0 0 0 0 0 0 0 0 0 0 0 0 0 0
18 19 19 21 22 18 14 12 9 6 3 1 0 1 1 1 0 0 0 0 0 0 1 1 0 0 0 0 0 0 0 0 0 0 0 0 0 0 0 0 0 0 0
18 20 20 20 21 18 13 9 8 6 3 1 0 1 2 2 1 0 0 0 0 0 1 1 1 1 1 0 0 0 0 0 0 0 0 0 0 0 0 0 0 0 0
18 19 20 20 19 16 12 7 7 6 3 1 0 1 2 2 1 0 0 0 0 0 1 1 2 2 2 1 1 0 0 0 0 0 0 0 0 0 0 0 0 0 0
18 19 19 17 16 14 11 8 8 7 4 2 0 0 1 1 0 0 0 0 0 0 0 0 1 3 3 3 2 1 0 0 0 0 0 0 0 0 0 0 0 0 0
18 19 16 13 12 12 11 10 9 6 3 1 0 0 0 0 0 0 0 0 0 0 0 0 1 2 4 3 3 2 0 0 0 0 0 0 0 0 0 0 0 0 0
15 16 13 9 8 10 11 11 9 5 2 1 1 1 0 0 0 0 0 0 0 0 0 0 0 1 2 2 2 1 0 0 0 0 0 0 0 0 0 0 0 0 0
11 11 10 6 5 7 9 11 9 5 2 1 1 1 0 0 0 0 0 0 0 0 0 0 0 1 1 1 1 1 1 1 0 0 0 0 0 1 1 0 0 0 0
10 10 8 6 6 8 9 9 9 5 2 0 1 1 0 0 0 0 0 0 1 1 1 1 1 2 2 1 1 2 2 2 1 0 0 0 1 2 2 2 2 1 0
10 9 8 6 7 8 7 7 8 6 3 1 0 1 1 0 0 0 0 0 1 2 2 1 1 2 2 1 1 2 3 3 2 1 0 1 2 2 2 2 2 1 1
10 10 8 7 8 8 6 7 9 8 4 2 2 2 1 0 0 0 0 0 1 1 1 0 0 1 1 2 1 1 1 2 3 3 2 2 2 1 1 1 1 1 0
14 12 9 8 7 7 7 7 8 8 6 4 4 3 2 0 0 0 0 0 0 0 0 0 0 0 1 2 2 1 1 2 3 4 3 1 1 0 0 0 0 0 0
15 13 9 7 6 7 7 7 7 7 6 6 5 4 2 0 0 0 0 1 1 0 0 0 0 0 0 1 2 2 2 2 3 4 2 1 0 0 0 0 0 0 0
12 11 8 5 5 5 6 6 6 6 6 6 5 4 2 1 0 0 0 1 2 1 1 1 0 0 0 0 1 2 2 1 1 1 1 0 0 0 0 0 0 0 0
10 9 7 5 4 5 5 5 4 4 4 5 4 3 2 1 0 0 0 2 3 3 2 2 1 0 0 0 0 1 1 0 0 0 0 0 0 0 0 0 0 0 0
9 8 6 3 3 4 5 4 3 3 3 3 2 1 2 1 1 0 1 2 3 3 3 3 2 0 0 0 0 0 0 0 0 0 0 0 0 0 0 0 0 0 0
6 6 4 2 1 3 4 3 3 3 2 1 0 0 1 1 1 1 1 3 3 3 3 2 1 0 0 0 0 0 0 0 0 0 0 0 0 0 0 0 0 0 0
5 4 2 1 1 2 3 3 3 3 1 0 0 1 2 2 2 1 2 3 3 2 1 1 0 0 0 0 0 0 0 0 0 0 0 0 0 0 0 0 0 0 0
3 2 1 0 1 2 3 3 3 2 1 0 0 1 2 3 3 3 3 3 2 1 0 0 0 0 0 0 0 0 0 0 0 0 0 0 0 0 0 0 0 0 0
3 2 0 0 1 2 3 3 2 1 0 0 0 1 1 2 3 3 3 3 3 2 1 1 0 0 0 0 0 0 0 0 0 0 0 0 0 0 0 0 0 0 0
3 2 1 1 0 1 2 2 1 0 0 0 0 0 0 1 1 2 3 3 3 3 3 2 1 0 0 0 0 0 0 0 0 0 0 0 0 0 0 0 0 0 0
2 2 2 1 0 0 1 1 0 0 0 0 0 0 0 0 0 1 1 2 3 3 3 3 2 1 0 0 0 0 0 0 0 0 0 0 0 0 0 0 0 0 0
1 1 1 1 0 0 0 0 0 0 0 0 0 0 0 0 0 0 0 1 2 2 3 3 2 1 0 0 0 0 0 0 0 0 0 0 0 0 0 0 0 0 0
0 0 0 0 0 0 0 0 0 0 0 0 0 0 0 0 0 0 0 0 1 1 1 2 2 1 0 0 0 0 0 0 0 0 0 0 0 0 0 0 0 0 0
0 0 0 0 0 0 0 0 0 0 0 0 0 0 0 0 0 0 0 0 0 0 0 1 1 0 0 0 0 0 0 0 0 0 0 0 0 0 0 0 0 0 0

GEFSMW_con_probscp_168.txt.gz
Probability
12 15 16 16 15 15 18 18 17 17 17 16 14 10 6 4 3 2 0 0 0 1 0 0 0 1 3 4 3 4 4 3 3 2 1 0 0 0 0 0 0 0 0
14 18 20 18 18 20 21 20 19 18 17 17 16 12 6 3 2 2 0 0 0 1 1 0 1 4 7 7 5 5 4 3 3 2 1 0 0 0 0 0 0 0 1
14 19 22 21 24 26 25 22 21 19 18 18 17 13 6 2 1 1 1 0 0 1 2 2 3 7 10 9 7 6 5 4 4 3 2 2 1 0 0 0 0 1 1
12 16 21 24 27 27 25 23 22 20 19 17 16 12 7 3 1 1 1 0 0 1 3 4 5 6 7 8 7 6 6 6 5 5 5 4 2 0 0 1 1 1 1
12 16 20 24 26 24 21 22 21 20 18 16 13 10 6 3 1 0 1 2 2 2 3 6 6 5 5 6 7 8 7 6 6 7 8 7 5 3 2 2 3 3 2
15 18 22 24 25 22 21 22 23 21 18 14 9 6 5 3 2 1 2 5 6 5 5 7 9 9 8 9 10 10 7 7 10 11 11 10 7 6 6 5 4 3 3
19 20 23 25 24 23 22 23 23 21 18 14 8 5 6 6 4 2 3 7 9 8 7 8 10 12 14 14 15 13 8 10 13 14 14 12 9 9 9 7 5 4 4
22 20 19 20 22 21 20 21 21 18 15 12 9 7 7 7 4 2 4 7 8 8 8 8 9 12 15 18 20 17 13 13 15 14 14 13 10 9 10 9 7 5 5
20 18 13 13 16 17 16 18 19 16 12 9 7 6 6 6 5 3 3 6 6 6 6 6 8 11 14 18 21 21 18 17 18 17 16 13 10 9 11 11 11 10 8
15 15 13 13 13 14 14 15 17 17 13 10 8 7 7 6 5 4 4 5 5 5 4 5 7 10 12 14 18 19 19 19 21 20 17 14 11 12 14 15 15 15 14
15 17 19 19 15 15 16 16 17 16 15 12 10 8 6 4 3 3 3 5 6 6 6 6 7 9 9 10 12 14 15 16 17 17 16 14 14 15 17 17 18 18 17
23 25 27 24 21 22 22 20 18 16 14 11 10 8 6 4 3 3 5 6 7 7 8 9 8 7 7 7 9 9 11 12 12 11 12 14 15 16 17 17 18 17 14
33 33 31 28 27 28 27 22 18 16 13 10 9 9 9 9 8 7 8 9 9 8 8 9 8 7 6 7 7 7 8 9 9 9 10 13 14 13 13 14 16 14 11
37 36 34 31 29 29 26 22 18 15 13 11 11 11 13 13 12 11 12 11 9 8 7 8 7 6 7 7 8 7 7 8 9 10 10 12 12 9 7 9 12 12 10
35 35 34 31 28 25 22 20 17 14 13 14 14 13 13 12 12 12 12 11 9 8 8 8 7 7 7 7 7 7 6 7 9 11 11 11 8 4 2 4 7 8 8
31 33 32 30 26 22 19 17 15 14 14 15 15 13 11 11 11 11 10 10 9 9 9 9 9 7 6 4 4 4 4 6 8 9 10 9 6 2 1 1 2 3 4
28 29 28 27 25 21 18 16 15 14 13 13 12 9 8 8 9 9 8 8 9 10 10 10 10 8 4 2 1 1 2 3 5 6 7 6 4 2 2 1 1 2 2
27 27 26 24 22 20 18 17 16 13 11 10 8 6 5 5 6 7 7 7 7 8 9 9 8 6 3 1 0 0 0 1 3 4 5 4 3 2 2 2 2 2 3
31 30 27 24 22 20 19 18 17 15 11 8 6 5 4 3 4 5 5 6 6 6 7 7 6 4 3 1 0 0 1 2 3 5 5 5 3 2 1 3 3 2 2
34 32 28 24 23 22 20 19 17 14 10 5 3 3 3 3 3 4 5 6 5 5 5 6 5 4 3 1 0 0 1 3 4 5 5 4 3 1 1 2 2 1 1
28 26 24 23 23 21 19 17 14 10 6 3 1 1 1 2 3 4 6 6 5 4 4 4 4 3 3 2 1 0 1 2 3 4 4 3 2 0 0 1 1 0 0
20 20 20 21 21 20 17 14 10 6 4 2 0 0 0 1 2 3 5 5 4 3 3 3 3 3 3 2 1 0 1 1 2 2 2 2 1 0 0 0 0 0 0
17 17 16 16 17 17 14 10 6 5 4 2 1 0 0 0 0 1 2 3 2 2 2 3 3 3 3 3 1 0 0 0 1 1 1 1 0 0 0 0 0 0 0
13 13 13 12 12 11 8 6 4 4 4 3 2 1 0 0 0 0 0 1 1 1 2 2 3 3 3 3 2 0 0 0 0 0 0 0 0 0 0 0 0 0 0
10 10 9 9 9 9 6 4 3 3 3 3 2 1 0 0 0 0 0 0 0 1 1 1 1 2 2 2 1 0 0 0 0 0 0 0 0 0 0 0 0 0 0
9 8 7 6 8 9 7 4 2 3 3 3 2 1 0 0 0 0 0 0 0 0 0 0 0 1 1 1 0 0 0 0 0 0 0 0 0 0 0 0 0 0 0

GEFSMW_con_probscp_174.txt.gz
Probability
45 48 48 50 52 52 51 48 44 39 32 26 24 21 19 15 11 11 13 12 8 5 3 3 5 6 5 6 8 9 6 4 3 3 3 3 2 2 4 5 4 3 2
54 54 53 54 57 57 52 47 43 39 33 29 26 23 20 17 13 13 14 12 8 4 3 3 5 7 8 9 11 11 8 5 4 4 4 3 2 2 3 4 5 5 5
64 62 59 58 60 60 55 47 44 41 36 33 30 26 23 20 16 14 15 13 8 5 4 5 7 9 12 13 14 14 11 7 6 7 8 6 4 3 2 3 4 6 6
64 63 61 58 58 59 57 52 49 46 40 36 35 31 27 22 17 14 13 13 10 7 6 7 9 12 14 15 15 15 14 12 10 10 10 10 8 6 4 2 3 5 6
58 59 60 60 57 56 57 54 52 49 44 39 37 35 31 24 17 13 13 13 12 10 9 10 11 12 13 14 15 16 16 16 14 12 11 11 10 9 6 4 3 5 6
56 57 60 61 57 53 54 55 54 52 47 43 40 37 32 25 18 15 15 15 14 12 12 13 14 15 14 14 15 17 19 18 16 13 12 11 11 11 9 6 4 4 5
56 57 59 60 56 54 55 57 57 54 49 44 41 37 32 25 19 16 16 16 15 14 14 16 20 20 18 15 15 17 20 20 17 14 12 11 11 13 12 8 4 3 4
49 51 54 56 55 54 56 58 58 54 48 43 39 35 30 24 20 19 18 17 15 14 14 17 20 20 16 14 13 15 17 19 17 14 12 11 10 11 12 10 6 4 3
38 42 47 50 50 50 52 56 57 52 45 39 35 32 28 23 21 22 21 18 14 12 12 13 15 15 13 12 11 12 15 17 17 16 15 12 9 9 12 13 11 7 5
32 37 43 46 46 45 47 51 52 47 40 36 33 31 29 24 23 24 23 20 16 13 12 12 11 12 13 14 13 12 13 15 16 16 15 13 11 10 12 14 14 11 8
33 40 47 48 46 44 45 46 44 38 32 29 28 28 26 23 21 22 22 22 19 15 13 13 12 12 13 15 14 12 12 13 13 12 12 12 11 12 13 13 12 11 10
41 48 56 54 48 45 46 44 39 32 26 23 24 25 23 20 19 20 21 20 17 14 13 14 13 12 12 14 13 11 11 11 10 8 8 8 10 12 13 11 8 8 10
53 58 61 58 51 48 48 44 38 32 26 23 25 24 21 19 19 20 20 18 14 12 12 13 14 12 12 13 12 10 10 9 8 5 4 5 8 9 10 9 7 7 7
64 63 63 61 56 53 50 45 39 32 28 27 26 25 22 19 19 20 21 18 15 14 13 13 13 13 12 11 10 9 7 5 3 2 1 2 4 5 6 6 7 7 6
67 65 64 63 60 55 50 46 40 33 31 29 26 23 20 19 18 19 19 18 16 15 14 13 12 11 10 8 8 8 6 3 1 0 0 1 1 2 3 4 5 6 6
66 66 64 62 59 55 49 45 41 37 35 30 24 19 17 16 16 16 16 15 14 13 12 11 10 8 7 6 6 6 5 4 3 2 1 0 0 1 3 3 3 3 3
68 66 65 61 57 53 48 44 40 38 37 31 22 16 14 14 13 12 12 12 11 10 11 10 8 7 5 3 2 2 3 4 5 4 3 1 0 1 3 2 1 1 2
70 68 64 59 54 51 47 42 38 37 36 30 21 15 14 13 12 10 9 10 10 10 10 9 7 6 5 3 1 1 3 4 4 4 3 2 1 1 2 2 1 1 2
70 68 62 55 50 48 46 42 38 36 34 28 20 16 15 14 12 10 9 9 11 12 10 8 6 5 4 3 1 1 3 4 3 3 3 3 2 2 2 1 0 1 1
68 65 61 55 51 49 46 44 40 36 31 25 18 15 15 13 11 9 8 9 11 11 8 5 4 4 3 2 1 1 2 3 3 3 3 3 2 2 1 0 0 0 0
65 63 60 57 53 50 47 43 38 32 26 20 15 12 11 9 6 6 6 8 9 8 6 4 3 3 3 2 1 0 1 2 3 3 3 2 1 1 0 0 0 0 0
63 60 57 54 50 46 42 36 30 24 19 14 9 7 6 3 2 2 3 4 5 5 3 2 1 2 3 2 1 0 0 1 2 2 2 1 0 0 0 0 0 0 0
57 54 50 45 41 38 33 26 21 16 13 10 6 2 1 1 0 1 1 1 1 1 1 1 1 1 2 2 1 0 0 0 1 1 1 0 0 0 0 0 0 0 0
49 47 43 38 33 30 24 18 14 11 9 6 3 1 0 0 0 0 0 0 0 0 0 0 0 1 1 1 0 0 0 0 0 0 0 0 0 0 0 0 0 0 0
43 43 39 33 27 23 17 12 10 9 7 4 2 0 0 0 0 0 0 0 0 0 0 0 0 0 0 0 0 0 0 0 0 0 0 0 0 0 0 0 0 0 0
40 40 36 28 22 17 12 9 8 7 5 3 1 1 0 0 0 0 0 0 0 0 0 0 0 0 0 0 0 0 0 0 0 0 0 0 0 0 0 0 0 0 0

GEFSMW_con_probscp_180.txt.gz
Probability
22 27 33 34 33 29 25 21 17 13 11 11 9 7 4 1 0 0 0 1 1 1 2 2 1 0 0 0 0 0 0 0 0 0 0 0 0 0 0 0 0 0 0
27 31 35 35 33 29 24 20 16 14 13 13 10 8 4 2 1 0 0 0 0 0 1 1 1 1 1 1 0 0 0 0 0 0 0 0 0 0 0 0 0 0 0
34 36 38 37 35 30 24 20 16 15 15 13 10 7 5 4 3 2 0 0 0 0 0 0 1 1 2 2 1 0 0 0 0 0 0 0 0 0 0 0 0 0 0
38 38 39 38 37 33 26 20 17 15 14 11 9 7 6 5 4 2 0 0 0 0 0 0 1 2 2 2 1 0 0 0 0 0 0 0 0 0 0 0 0 0 0
40 40 40 39 37 34 27 20 16 14 12 9 7 7 6 5 3 1 0 0 0 0 0 0 1 1 1 1 0 0 0 0 0 0 0 0 0 0 0 0 0 0 0
43 41 40 38 35 32 27 21 16 12 10 9 8 8 6 4 3 1 0 0 0 0 0 0 0 1 1 0 0 0 0 0 0 0 0 0 0 0 0 0 0 0 0
42 42 41 36 30 27 25 21 16 11 9 9 10 9 6 4 3 2 0 0 0 0 0 0 1 2 2 1 0 0 0 0 0 0 0 0 1 1 1 1 1 0 0
39 42 40 33 26 24 24 22 17 13 11 11 11 9 6 5 4 2 0 0 0 0 0 0 1 2 2 1 0 1 1 1 1 1 1 1 2 2 2 2 2 1 0
36 37 34 27 23 23 23 23 20 17 15 13 11 8 5 3 2 1 0 0 0 0 0 0 1 2 1 0 1 2 2 2 2 2 2 2 2 3 3 3 3 2 1
31 29 24 21 21 21 21 19 17 15 14 13 11 8 4 2 1 0 0 0 0 0 1 1 2 2 2 1 1 2 3 2 2 2 2 1 1 2 2 2 2 2 2
25 23 19 19 20 19 16 13 10 8 9 9 9 7 4 3 2 0 0 0 0 1 2 3 3 3 2 2 2 2 1 1 1 1 1 0 0 1 1 1 1 1 1
23 21 19 19 19 16 14 12 9 7 6 6 7 6 4 2 1 0 0 0 0 1 2 2 2 1 1 2 2 1 0 0 0 0 0 0 0 0 0 0 0 0 0
25 23 21 19 17 15 14 15 13 9 6 5 5 4 2 0 0 1 1 1 1 1 1 1 1 1 1 3 2 1 0 0 0 0 0 0 0 0 0 0 0 0 0
31 31 27 22 17 15 15 16 15 11 8 6 4 2 1 1 1 2 2 1 1 0 0 1 2 2 2 3 2 1 0 0 0 0 0 0 0 0 0 0 0 0 0
35 35 32 25 19 16 15 15 13 10 8 7 3 1 2 3 4 4 4 3 2 1 1 2 3 2 3 2 1 0 0 0 0 0 0 0 0 0 0 0 0 0 0
35 35 33 27 21 17 15 14 12 10 8 7 4 3 4 5 6 5 4 3 2 1 2 3 3 3 2 1 0 0 0 0 0 0 0 0 0 0 0 0 0 0 0
35 35 33 29 23 19 16 15 13 11 9 7 6 5 5 6 6 5 4 3 1 1 2 3 3 3 2 1 0 0 0 0 0 0 0 0 0 0 0 0 0 0 0
35 34 33 30 26 22 18 17 15 12 10 9 9 8 7 7 6 4 3 2 1 1 2 2 2 2 1 0 0 0 0 0 0 0 0 0 0 0 0 0 0 0 0
36 33 30 29 28 23 18 15 14 12 10 10 10 9 8 6 4 3 2 1 0 0 1 1 1 1 0 0 0 0 0 0 0 0 0 0 0 0 0 0 0 0 0
36 33 28 26 26 22 17 13 12 12 10 9 9 8 6 4 2 1 1 0 0 0 0 0 0 0 0 0 0 0 0 0 0 0 0 0 0 0 0 0 0 0 0
37 33 26 21 19 18 16 13 11 10 8 7 6 5 3 1 0 0 0 0 0 0 0 0 0 0 0 0 0 0 0 0 0 0 0 0 0 0 0 0 0 0 0
36 30 23 17 15 15 15 13 10 7 6 5 4 2 1 0 0 0 0 0 0 0 0 0 0 0 0 0 0 0 0 0 0 0 0 0 0 0 0 0 0 0 0
30 26 20 16 14 14 13 10 7 6 5 3 2 1 0 0 0 0 0 0 0 0 0 0 0 0 0 0 0 0 0 0 0 0 0 0 0 0 0 0 0 0 0
24 23 20 17 14 12 11 8 5 4 3 2 1 0 0 0 0 0 0 0 0 0 0 0 0 0 0 0 0 0 0 0 0 0 0 0 0 0 0 0 0 0 0
22 21 19 15 11 9 7 5 2 1 2 1 0 0 0 0 0 0 0 0 0 0 0 0 0 0 0 0 0 0 0 0 0 0 0 0 0 0 0 0 0 0 0
19 18 17 14 9 6 4 2 1 0 1 0 0 0 0 0 0 0 0 0 0 0 0 0 0 0 0 0 0 0 0 0 0 0 0 0 0 0 0 0 0 0 0

GEFSMW_con_probscp_186.txt.gz
Probability
8 10 12 10 8 6 5 5 6 7 6 5 2 0 0 0 0 0 0 0 0 0 0 0 0 0 0 0 0 0 0 0 0 0 0 0 0 0 0 0 0 0 0
10 11 12 11 8 5 5 6 7 7 6 5 3 1 0 0 0 0 0 0 0 0 0 0 0 0 0 0 0 0 0 0 0 0 0 0 0 0 0 0 0 0 0
13 14 15 13 9 6 6 7 7 6 6 7 5 3 1 1 0 0 0 0 0 0 0 0 0 0 0 0 0 0 0 0 0 0 0 0 0 0 0 0 0 0 0
15 16 16 15 12 8 7 8 6 5 6 7 6 5 4 2 0 0 1 1 0 0 0 0 0 0 0 0 0 0 0 0 0 0 0 0 0 0 0 0 0 0 0
15 15 15 16 14 10 7 7 5 4 4 6 6 6 5 3 1 1 2 2 1 0 0 0 0 0 0 0 0 0 0 0 0 0 0 0 0 0 0 0 0 0 0
11 11 13 17 16 11 8 6 5 4 4 6 6 6 6 4 3 2 3 2 1 0 0 0 0 0 0 0 0 0 0 0 0 0 0 0 1 1 1 1 1 0 1
9 9 12 16 16 12 9 7 6 5 4 6 6 6 6 6 4 3 3 2 1 0 0 0 0 0 0 0 0 0 0 0 0 0 0 1 2 2 2 2 2 1 1
9 9 12 14 14 12 10 8 6 4 4 5 6 6 6 5 4 3 3 2 1 0 0 0 0 0 0 0 0 0 0 0 0 0 0 1 2 2 2 3 2 1 1
9 9 11 13 13 11 10 8 6 4 4 5 6 6 5 4 3 3 2 1 0 0 0 0 0 0 0 0 0 0 0 0 0 0 0 0 1 1 1 1 2 1 1
12 11 12 12 11 10 9 8 6 4 4 5 6 6 6 5 3 1 1 0 0 0 0 0 0 0 0 0 0 0 0 0 0 0 0 0 0 0 0 0 1 1 0
17 16 14 13 11 8 7 6 5 4 4 5 5 4 4 4 2 1 0 0 0 0 0 0 0 0 0 0 0 0 0 0 0 0 0 0 0 0 0 0 0 0 0
20 19 17 14 10 7 5 5 5 5 4 3 2 2 1 1 1 0 0 0 0 0 0 0 0 0 0 0 0 0 0 0 0 0 0 0 0 0 0 0 0 0 0
18 17 16 12 8 5 4 4 5 4 3 2 2 1 0 0 0 0 0 0 0 0 0 0 0 0 0 0 0 0 0 0 0 0 0 0 0 0 0 0 0 0 0
15 13 12 10 7 5 5 4 4 4 3 2 2 1 0 0 0 0 0 0 0 0 0 0 0 0 0 0 0 0 0 0 0 0 0 0 0 0 0 0 0 0 0
16 14 12 10 9 8 8 7 5 4 4 3 2 1 1 1 1 1 1 1 0 0 0 0 0 0 0 0 0 0 0 0 0 0 0 0 0 0 0 0 0 0 0
18 18 15 12 11 11 12 11 9 7 6 4 2 3 3 3 3 2 2 1 0 0 0 0 0 0 1 0 0 0 0 0 0 0 0 0 0 0 0 0 0 0 0
20 19 16 13 11 11 12 12 11 9 7 6 5 6 7 6 5 3 1 0 0 0 0 0 0 0 0 0 0 0 0 0 0 0 0 0 0 0 0 0 0 0 0
20 19 15 13 11 11 10 11 10 9 7 7 7 7 8 8 6 2 0 0 0 0 0 0 0 0 0 0 0 0 0 0 0 0 0 0 0 0 0 0 0 0 0
19 19 16 13 12 10 8 9 9 8 6 6 6 7 8 7 5 2 1 0 0 0 0 0 0 0 0 0 0 0 0 0 0 0 0 0 0 0 0 0 0 0 0
19 20 17 14 12 9 8 9 9 8 6 5 4 6 6 5 4 2 1 0 0 0 0 0 0 0 0 0 0 0 0 0 0 0 0 0 0 0 0 0 0 0 0
19 20 19 16 12 9 8 8 9 8 6 5 4 4 4 4 3 2 1 0 0 0 0 0 0 0 0 0 0 0 0 0 0 0 0 0 0 0 0 0 0 0 0
18 18 18 15 10 7 5 6 6 6 5 4 3 3 3 3 3 2 1 0 0 0 0 0 0 0 0 0 0 0 0 0 0 0 0 0 0 0 0 0 0 0 0
18 17 17 13 7 2 2 3 3 3 3 3 3 3 3 2 1 1 0 0 0 0 0 0 0 0 0 0 0 0 0 0 0 0 0 0 0 0 0 0 0 0 0
18 17 15 11 4 0 0 1 1 1 2 3 3 3 2 1 0 0 0 0 0 0 0 0 0 0 0 0 0 0 0 0 0 0 0 0 0 0 0 0 0 0 0
14 14 11 7 3 0 0 0 0 0 1 1 2 1 1 0 0 0 0 0 0 0 0 0 0 0 0 0 0 0 0 0 0 0 0 0 0 0 0 0 0 0 0
9 9 7 4 1 0 0 0 0 0 0 0 1 0 0 0 0 0 0 0 0 0 0 0 0 0 0 0 0 0 0 0 0 0 0 0 0 0 0 0 0 0 0

GEFSMW_con_probscp_192.txt.gz
Probability
7 9 10 9 9 8 9 10 11 11 11 10 9 9 7 4 1 0 0 0 0 0 0 0 0 1 2 2 1 0 0 0 1 1 1 0 0 0 0 1 2 1 0
12 15 16 15 12 10 10 12 13 12 11 12 11 10 7 4 1 0 0 0 0 0 0 0 0 0 1 1 0 0 0 0 0 0 0 0 0 0 0 1 1 1 1
15 19 21 20 17 14 14 14 14 13 11 12 12 11 8 6 4 2 2 1 1 1 0 0 0 0 0 0 0 0 0 0 0 0 0 0 1 1 1 1 2 2 3
17 18 19 19 19 18 15 14 14 12 11 11 11 11 10 7 5 5 4 4 4 3 1 0 0 0 0 0 1 1 1 1 0 0 0 1 2 3 3 3 3 3 4
18 16 15 18 19 17 14 12 12 11 10 11 11 10 9 7 6 6 7 6 6 5 3 1 0 0 0 0 1 2 2 1 1 1 1 2 4 6 6 5 4 5 5
17 16 15 17 18 17 16 14 13 11 9 10 9 8 8 8 8 8 8 7 6 5 3 1 0 0 0 1 2 1 1 1 2 3 4 6 7 8 7 5 4 5 5
16 16 16 18 20 22 23 21 18 13 8 7 7 7 8 10 11 11 10 8 6 4 3 1 0 0 0 2 2 1 0 1 4 6 8 10 10 10 8 5 3 3 2
16 17 19 20 22 25 25 25 21 14 8 6 8 9 10 10 11 11 10 8 7 4 3 3 2 1 0 1 2 2 2 3 6 7 9 10 9 10 9 6 3 1 0
16 19 21 22 24 24 24 24 22 16 10 8 9 10 11 10 9 10 10 9 8 5 5 5 4 3 2 2 4 4 4 6 7 8 7 8 8 7 7 6 4 2 1
18 21 24 25 25 24 24 24 22 18 12 8 7 9 11 11 11 11 11 10 10 9 7 7 7 6 5 6 7 6 5 5 6 5 4 4 5 5 5 5 5 4 3
20 23 26 26 26 25 23 23 22 17 13 10 9 10 11 12 13 12 11 12 13 12 10 8 8 8 7 7 7 6 4 3 2 1 1 1 2 3 4 5 6 6 5
21 23 26 27 27 25 23 22 20 17 15 15 15 14 13 12 12 11 10 12 13 11 10 9 9 8 7 6 5 4 2 1 1 1 1 0 1 2 3 5 6 6 5
26 26 28 30 31 30 29 25 21 19 18 18 18 18 15 13 12 11 10 10 9 8 8 8 8 8 7 6 5 4 3 3 3 3 3 1 2 3 3 4 4 4 3
33 34 36 38 37 37 35 30 23 21 20 19 18 17 15 14 14 13 11 9 7 7 6 7 7 7 6 5 5 6 5 6 6 6 5 3 2 3 4 3 3 2 1
39 41 45 45 42 40 36 30 25 23 23 20 18 16 15 15 14 13 11 9 8 7 6 6 6 5 4 4 4 4 5 6 8 8 6 3 1 2 2 2 1 1 1
44 44 47 48 45 41 35 30 27 27 26 23 20 19 17 15 13 10 9 8 6 5 4 4 4 4 3 3 2 3 3 5 7 7 5 2 0 0 0 0 0 0 1
49 48 48 48 46 43 38 35 33 31 28 25 23 22 20 17 13 9 7 6 4 4 3 3 3 3 3 1 1 1 2 4 5 5 3 1 0 0 0 0 0 0 0
52 52 50 49 47 45 42 37 34 31 29 26 24 24 22 18 14 10 7 5 4 4 3 3 3 3 2 1 0 0 1 2 2 1 1 0 0 0 0 0 0 0 0
54 54 52 49 47 46 43 36 31 29 27 26 25 24 21 17 13 10 7 6 6 5 4 3 3 3 3 1 0 0 0 0 0 0 0 0 0 0 0 0 0 0 0
56 55 53 50 46 43 41 36 32 28 26 25 24 22 19 16 13 9 7 6 6 6 5 4 4 4 4 1 0 0 0 0 0 0 0 0 0 0 0 0 0 0 0
61 59 55 51 46 42 40 38 35 31 26 24 22 19 16 13 11 8 7 6 6 6 6 5 5 5 4 1 0 0 0 0 1 1 0 0 0 0 0 0 0 0 0
65 62 57 52 47 43 41 39 36 31 25 21 19 17 13 10 8 7 6 6 6 6 6 6 5 4 3 1 0 0 0 0 1 2 1 0 0 0 0 0 0 0 0
64 60 55 51 46 42 40 37 33 28 23 20 17 14 10 8 6 6 5 4 5 6 6 5 5 4 3 2 1 0 0 0 1 1 1 0 0 0 0 0 0 0 0
61 58 53 48 42 39 37 34 30 26 22 19 16 12 10 8 7 6 4 4 4 4 4 3 2 2 3 3 2 1 0 0 0 1 1 0 0 0 0 0 0 0 0
56 55 52 46 40 36 33 29 25 22 19 17 14 12 10 9 8 7 5 3 2 2 2 1 0 1 2 2 2 1 0 0 0 1 1 1 1 0 0 0 0 0 0
53 53 50 44 39 35 29 24 21 18 16 13 11 11 11 10 9 7 4 2 1 1 1 0 0 0 1 1 1 1 0 0 0 1 2 2 2 1 0 0 0 0 0

GEFSMW_con_probscp_198.txt.gz
Probability
42 40 37 37 43 48 45 37 30 24 20 16 15 16 16 15 12 7 4 2 1 0 0 1 1 0 0 1 1 1 0 0 0 0 0 0 1 2 3 4 5 4 2
47 46 43 42 48 52 49 43 35 28 21 17 16 16 17 15 11 6 5 5 3 2 1 2 2 1 0 1 2 1 1 0 0 0 0 0 0 1 2 3 5 4 3
51 52 51 50 53 56 54 48 43 35 25 20 18 17 17 15 10 9 11 10 7 5 4 3 2 1 1 1 1 1 2 2 2 2 2 1 0 0 0 1 2 2 2
50 53 54 54 55 57 57 56 52 43 32 25 21 17 15 13 12 15 17 16 13 9 6 4 3 2 2 2 1 2 5 4 3 4 5 4 2 1 1 0 0 0 0
45 48 53 55 54 53 57 61 60 50 36 27 22 17 13 11 13 16 19 19 18 14 10 7 5 5 5 4 3 5 7 6 4 4 5 5 3 2 2 1 0 0 0
40 45 53 54 50 48 52 58 59 50 35 24 19 16 13 13 14 15 17 19 20 19 17 13 12 11 7 5 5 6 7 6 4 4 4 3 3 4 4 3 1 0 0
41 46 52 54 49 46 50 53 53 46 35 23 17 15 15 16 16 16 16 18 19 21 22 20 21 18 12 8 6 5 6 6 5 4 3 2 3 4 4 3 1 0 0
40 44 50 51 48 46 48 50 49 45 37 27 19 16 16 16 16 16 15 16 17 20 23 24 24 22 17 12 8 5 5 6 6 4 2 1 2 3 3 2 1 0 0
34 39 46 48 47 46 46 47 50 47 38 29 22 17 16 16 15 15 15 15 15 16 19 21 21 20 17 14 10 8 7 7 6 5 3 2 2 3 4 2 0 0 0
32 37 43 46 45 44 43 46 50 47 38 30 23 18 19 21 19 16 15 15 14 15 15 15 15 15 14 14 12 10 8 7 6 6 5 4 3 4 5 3 2 1 1
34 37 43 46 45 42 41 44 48 46 39 32 28 24 24 25 23 20 17 15 15 15 15 13 12 11 11 12 12 11 8 7 6 6 6 4 3 4 5 4 4 4 3
38 41 47 50 49 46 44 45 46 45 40 36 34 32 31 28 25 22 20 19 17 17 16 14 11 10 10 11 11 10 8 7 6 6 6 4 4 4 4 4 6 5 4
45 48 54 57 56 54 52 49 47 44 41 40 39 38 35 30 25 23 23 22 19 17 15 13 10 9 9 9 9 9 7 6 6 6 6 4 4 4 4 4 5 5 2
51 55 62 66 66 65 62 57 53 48 46 45 44 41 37 31 25 24 23 20 17 15 13 12 10 10 8 7 7 7 5 4 5 6 6 5 4 3 3 3 4 3 2
58 62 69 74 76 73 69 64 61 56 52 49 47 45 39 33 28 26 25 21 16 14 12 11 10 9 7 6 6 6 5 4 5 5 5 4 3 2 2 1 2 2 2
67 69 72 77 79 77 72 69 66 62 57 52 48 46 42 37 33 30 27 22 16 13 11 10 8 7 6 5 4 5 5 4 4 4 3 2 1 1 1 0 0 1 1
73 73 74 76 77 77 75 72 68 64 61 55 50 47 44 41 37 32 27 22 16 13 10 8 7 7 6 4 4 4 5 5 4 3 3 1 0 0 0 0 0 0 0
79 79 78 77 76 76 76 73 68 64 61 57 50 47 46 42 36 30 25 21 17 12 9 7 6 6 6 5 3 3 4 6 5 4 3 2 1 0 0 0 0 0 0
84 82 81 79 77 76 74 71 67 65 63 57 50 46 43 37 29 24 21 19 16 11 8 6 6 6 6 5 2 1 3 5 6 5 4 2 1 0 0 0 0 0 0
83 82 81 80 78 77 74 70 66 65 62 55 46 40 36 30 22 18 17 16 14 10 7 6 6 6 6 5 2 1 3 4 6 5 3 2 0 0 0 1 1 1 1
82 82 82 81 79 79 76 72 67 63 59 52 42 35 31 25 18 15 15 14 12 9 7 6 6 6 6 4 1 1 2 3 4 4 3 2 1 0 0 1 2 2 2
83 83 83 80 78 77 76 74 68 62 57 50 42 35 30 23 18 16 15 13 11 8 6 4 4 5 5 4 1 0 1 1 3 3 3 2 1 0 0 0 1 1 1
82 81 79 76 73 71 70 70 66 59 54 49 42 36 30 23 19 18 15 12 9 7 5 3 3 4 4 3 2 1 0 0 1 2 1 1 0 0 0 0 0 0 0
78 78 76 72 69 65 63 62 60 55 49 45 40 35 28 22 19 17 13 10 8 6 5 4 4 3 3 3 2 1 0 0 0 0 0 0 0 0 0 0 0 0 0
75 76 75 71 67 62 59 57 54 49 45 42 37 31 25 20 17 13 10 7 6 5 4 4 4 3 2 1 1 0 0 0 0 0 1 1 1 0 0 0 0 0 0
74 75 74 71 66 61 57 55 51 46 44 41 35 28 22 19 14 10 7 4 3 2 2 2 2 1 1 0 0 0 0 0 0 1 2 2 2 1 0 0 0 0 0

GEFSMW_con_probscp_204.txt.gz
Probability
28 33 40 41 36 29 23 17 14 11 7 4 3 3 3 1 1 0 0 0 0 0 0 0 0 0 0 0 0 0 0 0 0 0 0 0 0 0 0 0 0 0 0
33 38 43 44 41 35 26 20 17 13 9 5 2 1 1 1 1 0 0 0 0 0 0 0 0 0 0 0 0 0 0 0 0 0 0 0 0 0 0 0 0 0 0
39 44 46 46 46 40 30 25 21 17 11 6 3 2 1 1 1 0 0 0 0 0 0 0 0 0 0 0 0 0 0 0 0 0 0 0 0 0 0 0 0 0 0
37 42 46 45 44 40 34 29 24 18 11 7 5 5 3 1 0 0 0 0 0 0 0 0 0 0 0 0 0 0 0 0 0 0 0 0 0 0 0 0 0 0 0
34 38 41 41 41 40 38 32 24 16 10 7 6 5 3 1 0 0 0 0 0 0 1 1 0 0 0 0 0 0 0 0 0 0 0 0 0 0 0 0 0 0 0
34 35 37 38 39 41 40 34 24 15 9 6 5 4 3 1 1 1 0 0 0 1 2 2 1 1 1 1 1 1 1 0 0 0 0 0 0 0 0 0 0 0 0
34 35 37 38 39 41 39 33 24 15 8 5 4 3 3 2 1 0 0 0 0 1 3 3 4 4 3 2 2 2 1 0 0 0 0 0 0 0 0 0 0 0 0
32 33 35 36 37 38 36 30 22 14 7 4 3 3 3 2 1 0 0 0 0 2 3 5 6 6 3 2 2 2 1 0 0 0 0 0 0 0 0 0 0 0 0
29 30 32 33 34 34 32 28 22 14 9 5 4 3 3 3 1 0 0 0 0 1 2 4 5 4 2 2 3 3 1 0 0 0 0 0 0 0 0 0 0 0 0
27 29 33 32 30 31 29 26 22 16 11 8 5 3 3 3 2 1 1 1 1 1 1 1 2 2 1 2 3 3 2 1 0 0 0 0 0 0 0 0 0 0 0
26 30 34 32 28 27 26 24 20 15 12 9 6 4 3 3 2 2 3 3 3 2 1 1 1 1 1 2 3 3 3 3 1 0 0 0 0 0 0 0 0 0 0
28 31 32 30 27 25 25 23 20 17 14 11 9 8 6 5 5 5 5 5 4 4 4 4 3 2 1 2 2 2 3 3 2 1 1 0 0 0 0 0 0 0 0
32 32 31 28 26 26 26 24 23 22 19 15 13 13 12 10 10 9 8 7 6 5 6 5 4 3 3 3 3 3 3 3 3 3 2 1 0 0 0 0 0 0 0
34 34 33 29 27 29 30 28 26 25 23 20 18 17 16 14 14 13 11 8 7 6 6 6 5 4 4 4 3 3 3 3 3 3 2 1 0 0 0 0 0 0 0
39 39 36 31 29 30 33 32 29 28 27 25 23 21 18 16 14 13 11 8 6 6 6 6 6 5 5 5 4 3 3 3 3 3 2 0 0 0 0 0 0 0 0
47 46 43 38 34 33 35 35 34 34 33 29 25 22 19 16 13 10 7 5 4 5 6 6 6 6 6 6 5 4 4 4 3 3 2 1 0 0 0 0 0 0 0
53 54 53 49 43 41 42 42 40 39 37 32 27 23 19 15 11 7 4 2 2 3 4 4 4 4 5 6 5 4 4 5 4 3 2 1 0 0 0 0 0 0 0
56 57 60 59 55 53 54 52 47 44 40 32 27 25 21 15 10 5 3 3 2 1 1 2 2 3 4 4 4 3 3 4 4 3 1 0 0 0 0 0 0 0 0
57 58 62 66 65 62 61 57 50 45 39 32 26 24 21 14 8 6 4 4 3 1 1 2 3 3 3 3 3 1 1 2 3 1 0 0 0 0 0 0 0 0 0
60 61 64 67 66 63 60 56 48 40 34 28 23 21 17 12 8 7 6 5 4 3 3 3 3 3 3 3 2 1 0 1 1 0 0 0 0 0 0 0 0 0 0
66 66 65 63 59 57 56 53 44 33 26 22 19 16 13 10 8 8 7 5 4 3 3 3 3 3 3 2 1 0 0 0 0 0 0 0 0 0 0 0 0 0 0
70 69 66 58 52 52 53 49 39 28 22 20 17 15 12 10 8 7 6 5 3 3 4 3 3 3 2 1 0 0 0 0 0 0 0 0 0 0 0 0 0 0 0
67 67 63 55 49 48 47 42 33 26 23 21 17 14 11 9 7 6 5 3 2 3 4 3 2 2 1 0 0 0 0 0 0 0 0 0 0 0 0 0 0 0 0
59 60 59 54 48 44 40 36 31 28 25 22 18 13 11 8 6 5 3 1 1 1 2 1 1 1 0 0 0 0 0 0 0 0 0 0 0 0 0 0 0 0 0
55 56 54 50 45 40 35 32 31 29 25 22 19 15 11 8 6 4 1 0 0 0 0 0 0 0 0 0 0 0 0 0 0 0 0 0 0 0 0 0 0 0 0
56 55 51 46 41 38 33 30 30 30 25 21 18 16 13 9 5 3 1 0 0 0 0 0 0 0 0 0 0 0 0 0 0 0 0 0 0 0 0 0 0 0 0

GEFSMW_con_probscp_210.txt.gz
Probability
1 3 5 4 5 6 6 5 5 4 4 3 3 2 2 1 0 0 0 0 0 0 0 0 0 0 0 0 0 0 0 0 0 0 0 0 0 0 0 0 0 0 0
2 4 5 4 5 6 6 6 6 5 4 3 3 1 1 0 0 0 0 0 0 0 0 0 0 0 0 0 0 0 0 0 0 0 0 0 0 0 0 0 0 0 0
3 4 5 5 6 7 7 7 7 6 4 3 2 1 0 0 0 0 0 0 0 0 0 0 0 0 0 0 0 0 0 0 0 0 0 0 0 0 0 0 0 0 0
4 5 6 6 8 9 9 8 7 7 6 4 2 1 1 0 0 0 0 0 0 0 0 0 0 0 0 0 0 0 0 0 0 0 0 0 0 0 0 0 0 0 0
5 6 8 9 10 11 10 9 8 7 7 5 3 2 2 1 0 0 0 0 0 0 0 0 0 0 0 0 0 0 0 0 0 0 0 0 0 0 0 0 0 0 0
8 9 9 9 11 10 9 7 7 6 6 5 4 3 3 2 1 0 0 0 0 0 0 0 0 0 0 0 0 0 0 0 0 0 0 0 0 0 0 0 0 0 0
10 10 9 9 10 10 7 4 3 3 4 4 4 3 3 3 2 1 0 0 0 0 0 0 0 0 0 0 0 0 0 0 0 0 0 0 0 0 0 0 0 0 0
10 10 10 9 10 10 7 3 2 3 4 4 4 3 3 3 3 1 0 0 0 0 0 0 0 0 0 1 1 0 0 0 0 0 0 0 0 0 0 0 0 0 0
7 8 9 9 10 9 6 4 3 4 5 5 4 3 3 3 3 2 1 1 0 0 0 0 0 0 0 1 1 0 0 0 0 0 0 0 0 0 0 0 0 0 0
6 7 8 9 7 5 4 3 4 5 6 6 5 4 3 3 3 3 2 1 0 0 1 0 0 0 0 1 1 0 0 0 0 0 1 1 1 0 0 0 0 0 0
7 8 9 8 5 3 3 5 7 7 7 7 6 4 4 4 4 4 3 1 0 1 1 0 0 0 0 0 0 0 0 1 1 1 2 2 1 1 0 0 0 0 0
12 12 11 9 6 5 7 9 10 10 9 8 7 6 6 7 7 5 4 2 1 1 1 0 1 1 1 1 1 1 1 2 2 3 3 2 1 0 0 0 0 0 0
16 15 13 11 9 9 11 13 14 12 11 11 11 10 9 9 9 8 7 5 3 2 1 0 1 2 2 2 2 2 3 3 3 3 3 2 1 0 0 0 0 0 0
16 17 15 13 11 11 13 15 15 14 15 16 15 13 11 11 11 11 9 6 3 2 1 0 1 2 2 3 4 4 3 3 3 3 3 2 1 0 0 0 0 0 0
17 18 18 17 15 15 18 19 17 17 20 21 19 15 13 12 12 12 10 5 3 1 0 0 0 1 1 2 3 4 3 3 3 3 3 3 1 0 0 0 0 0 0
22 24 25 25 23 23 27 28 25 22 24 24 19 14 13 13 12 12 9 5 2 1 0 0 0 1 1 1 1 2 3 3 3 3 3 3 2 1 1 0 0 0 0
28 30 33 32 28 28 33 34 31 27 27 24 18 14 14 13 12 10 8 4 2 1 1 1 1 1 1 0 0 1 2 3 3 3 3 3 3 2 1 0 0 0 0
29 30 33 32 29 29 33 35 34 32 29 24 18 14 15 14 12 9 7 4 2 2 2 2 2 2 1 1 1 1 2 3 3 3 3 3 3 1 1 0 0 0 0
27 27 30 32 33 35 37 38 37 35 31 25 19 17 16 14 10 7 5 3 2 1 1 2 2 2 2 2 2 2 3 3 3 3 3 3 2 1 0 0 0 0 0
30 30 32 37 40 43 44 42 39 35 29 23 19 17 15 11 6 4 4 3 2 1 1 1 1 2 3 2 2 2 2 2 3 3 2 1 1 0 0 0 0 0 0
41 40 41 43 45 46 47 44 37 30 25 20 17 16 14 9 4 2 3 3 3 1 0 0 1 2 2 1 1 1 1 1 1 2 1 0 0 0 0 0 0 0 0
48 48 48 48 47 45 45 42 33 25 22 20 17 16 15 11 6 3 3 3 2 1 0 0 1 2 2 1 0 0 0 0 0 0 0 0 0 0 0 0 0 0 0
45 48 49 49 46 43 40 37 29 23 21 21 19 16 15 13 10 6 3 3 1 0 0 0 1 1 1 0 0 0 0 0 0 0 0 0 0 0 0 0 0 0 0
41 43 47 46 40 36 35 32 26 23 23 22 19 15 13 12 10 6 3 2 1 0 0 0 0 0 0 0 0 0 0 0 0 0 0 0 0 0 0 0 0 0 0
38 39 40 39 34 31 30 29 25 25 25 23 18 14 12 11 8 5 2 1 0 0 0 0 0 0 0 0 0 0 0 0 0 0 0 0 0 0 0 0 0 0 0
35 35 35 34 31 28 28 28 25 25 25 24 20 15 12 10 7 4 1 0 0 0 0 0 0 0 0 0 0 0 0 0 0 0 0 0 0 0 0 0 0 0 0

GEFSMW_con_probscp_216.txt.gz
Probability
4 5 5 6 7 8 7 4 4 6 7 7 6 4 3 3 2 1 0 0 0 0 0 0 0 0 0 0 0 0 0 0 1 1 1 1 1 1 0 0 0 0 0
5 6 6 7 9 11 9 6 5 7 7 6 5 3 3 3 2 1 0 0 0 0 0 0 0 0 1 1 0 0 0 0 1 1 2 2 1 1 0 0 0 0 0
5 6 8 10 11 13 11 9 10 11 9 7 4 2 2 2 1 0 1 1 0 0 1 1 0 1 2 2 1 0 0 1 2 3 4 4 2 1 1 1 1 0 0
6 6 7 9 10 11 12 14 16 18 16 12 7 4 2 1 1 1 2 2 2 1 2 2 1 1 3 3 2 1 2 3 4 5 5 4 4 3 2 1 1 1 1
6 5 6 7 6 7 11 15 20 24 24 18 13 9 4 2 2 2 3 4 4 3 2 2 2 3 4 5 4 4 4 6 5 5 5 5 7 6 3 1 2 2 2
7 6 6 7 6 5 8 13 21 26 25 22 17 13 9 6 5 4 4 4 4 3 2 2 3 4 6 7 7 7 7 7 6 6 6 7 10 10 6 3 1 2 2
6 7 8 9 7 7 8 13 21 24 22 21 18 15 12 9 7 5 4 3 3 3 3 2 3 5 6 7 9 9 8 8 8 9 9 10 12 13 10 6 3 2 2
6 6 8 9 9 10 12 16 21 22 20 19 18 16 12 9 6 5 4 3 3 3 3 2 3 4 5 6 8 9 9 10 11 11 12 12 12 12 11 9 7 4 3
9 7 8 10 12 14 15 17 20 22 21 20 19 16 11 8 6 5 4 3 3 2 2 2 2 3 4 4 5 7 9 11 12 13 14 14 13 11 10 9 7 5 3
14 12 11 12 15 17 17 16 18 22 23 20 19 16 11 8 7 6 5 4 4 4 4 3 2 3 4 3 3 5 8 10 12 13 13 14 11 9 8 7 6 5 3
19 19 18 19 19 19 19 18 18 22 23 21 21 19 14 11 9 8 7 6 6 6 6 6 4 4 4 3 2 3 6 8 9 9 9 9 7 6 6 6 6 5 4
25 25 27 28 26 23 23 22 23 24 25 25 26 24 21 17 14 12 10 9 8 8 7 7 5 4 3 1 1 1 4 6 6 5 3 3 4 5 7 7 6 5 4
29 31 35 37 34 31 29 28 29 29 30 31 30 28 25 23 20 18 15 13 11 10 9 8 6 3 1 0 0 1 2 3 2 1 1 1 3 6 7 7 7 6 6
32 37 42 45 44 42 39 36 36 36 37 36 33 30 27 26 25 24 21 17 14 13 12 10 5 2 0 0 0 1 1 1 0 0 0 0 1 3 4 5 6 6 6
35 41 47 52 54 53 50 46 45 46 45 44 39 35 32 29 28 28 24 19 16 15 13 9 4 0 0 0 0 0 0 0 0 0 0 0 0 1 1 2 3 4 5
36 41 49 57 63 62 59 56 54 53 53 53 48 42 37 35 31 28 24 19 16 14 12 8 3 1 1 0 0 0 0 0 0 0 0 0 0 0 0 0 1 1 2
38 42 50 61 67 67 63 61 59 57 57 57 51 44 41 39 35 29 26 22 17 13 10 7 4 3 2 1 0 0 1 1 0 0 0 0 0 0 0 0 0 0 0
43 47 53 59 65 66 64 63 62 61 59 55 49 44 42 40 36 32 30 25 18 14 10 7 5 5 4 2 0 1 2 2 1 0 0 0 0 0 0 0 0 0 0
51 52 53 57 62 65 66 67 67 66 61 54 48 44 41 38 35 34 32 26 19 14 11 8 6 6 5 3 1 1 2 2 1 0 0 0 0 0 0 0 0 0 0
56 56 55 59 65 69 72 74 72 70 65 57 50 46 41 35 33 33 30 25 19 14 11 9 7 7 6 3 1 0 1 1 0 0 0 0 0 0 0 0 0 0 0
57 59 60 65 70 74 77 79 76 72 69 61 53 48 41 35 32 31 27 21 17 13 11 9 8 7 5 3 1 0 0 0 0 0 0 0 0 0 0 0 0 0 0
58 58 62 68 71 72 76 79 77 73 71 65 56 48 42 35 32 30 25 18 14 13 11 10 9 7 5 2 0 0 0 0 0 0 0 0 0 0 0 0 0 0 0
59 57 58 62 64 66 69 73 75 74 71 65 57 49 43 37 33 31 26 19 14 13 12 11 10 9 6 3 1 0 0 0 0 0 0 0 0 0 0 0 0 0 0
58 56 54 55 56 58 60 63 69 71 67 61 55 49 43 38 34 30 26 20 15 13 13 13 12 11 8 4 1 0 0 0 0 0 0 0 0 0 0 0 0 0 0
53 53 52 50 49 51 53 56 61 63 59 54 50 46 42 37 30 25 22 17 12 10 10 12 12 11 8 3 1 0 0 0 0 0 0 0 0 0 0 0 0 0 0
46 48 50 47 45 48 51 54 57 57 53 49 46 44 41 35 27 22 17 12 8 6 7 8 9 8 5 2 0 0 0 0 0 0 0 0 0 0 0 0 0 0 0